Wetterdaten: Samstag, 04.06.2016
Datum Zeit Temp. Aussen Temp. o. S. +5cm Feuchte Auss BlattFeu 1 Luftdruck Regen Sonnenschein Regendauer Solar Windben Empfang
04.06.2016 00:00 18,1 C 17,8 C 16,7 C 87 % 0 lf 1011,9 hPa 0,0 l/m 0 min 2 min 0 W/m 10,5 km/h (2 Bft) 89,36 %
04.06.2016 00:02 18,0 C 17,8 C 16,7 C 87 % 0 lf 1011,9 hPa 0,0 l/m 0 min 0 min 0 W/m 10,5 km/h (2 Bft) 90,70 %
04.06.2016 00:06 18,0 C 17,8 C 16,1 C 86 % 0 lf 1011,8 hPa 0,0 l/m 0 min 0 min 0 W/m 8,4 km/h (2 Bft) 91,46 %
04.06.2016 00:08 18,0 C 17,8 C 16,1 C 86 % 0 lf 1011,8 hPa 0,0 l/m 0 min 0 min 0 W/m 6,3 km/h (2 Bft) 91,49 %
04.06.2016 00:10 18,0 C 17,8 C 16,1 C 86 % 0 lf 1011,6 hPa 0,0 l/m 0 min 0 min 0 W/m 16,7 km/h (3 Bft) 93,62 %
04.06.2016 00:12 17,9 C 17,8 C 16,1 C 86 % 0 lf 1011,5 hPa 0,0 l/m 0 min 0 min 0 W/m 14,6 km/h (3 Bft) 91,49 %
04.06.2016 00:14 17,9 C 17,2 C 16,1 C 86 % 0 lf 1011,8 hPa 0,0 l/m 0 min 0 min 0 W/m 4,2 km/h (1 Bft) 97,87 %
04.06.2016 00:16 17,9 C 17,2 C 16,1 C 86 % 0 lf 1011,8 hPa 0,0 l/m 0 min 0 min 0 W/m 6,3 km/h (2 Bft) 95,65 %
04.06.2016 00:18 17,9 C 17,2 C 16,1 C 86 % 0 lf 1011,9 hPa 0,0 l/m 0 min 0 min 0 W/m 0,0 km/h (0 Bft) 95,74 %
04.06.2016 00:20 17,9 C 17,2 C 16,1 C 86 % 0 lf 1012,0 hPa 0,0 l/m 0 min 0 min 0 W/m 0,0 km/h (0 Bft) 97,87 %
04.06.2016 00:22 17,9 C 17,2 C 16,1 C 86 % 4 lf 1012,2 hPa 0,0 l/m 0 min 2 min 0 W/m 8,4 km/h (2 Bft) 95,74 %
04.06.2016 00:24 17,8 C 17,2 C 15,6 C 86 % 8 lf 1012,2 hPa 0,0 l/m 0 min 2 min 0 W/m 10,5 km/h (2 Bft) 95,74 %
04.06.2016 00:26 17,8 C 16,7 C 15,6 C 87 % 10 lf 1012,2 hPa 0,0 l/m 0 min 2 min 0 W/m 4,2 km/h (1 Bft) 95,74 %
04.06.2016 00:28 17,8 C 16,7 C 15,6 C 87 % 8 lf 1012,1 hPa 0,0 l/m 0 min 2 min 0 W/m 10,5 km/h (2 Bft) 95,65 %
04.06.2016 00:30 17,8 C 15,6 C 15,0 C 87 % 5 lf 1012,1 hPa 0,4 l/m 0 min 2 min 0 W/m 10,5 km/h (2 Bft) 95,74 %
04.06.2016 00:32 17,8 C 15,6 C 15,0 C 88 % 6 lf 1012,2 hPa 1,2 l/m 0 min 2 min 0 W/m 10,5 km/h (2 Bft) 97,87 %
04.06.2016 00:34 17,8 C 15,6 C 15,0 C 88 % 15 lf 1012,6 hPa 1,2 l/m 0 min 2 min 0 W/m 10,5 km/h (2 Bft) 97,87 %
04.06.2016 00:36 17,8 C 15,6 C 15,0 C 89 % 15 lf 1012,5 hPa 1,0 l/m 0 min 2 min 0 W/m 16,7 km/h (3 Bft) 97,87 %
04.06.2016 00:38 17,7 C 15,6 C 14,4 C 89 % 15 lf 1012,7 hPa 3,2 l/m 0 min 2 min 0 W/m 14,6 km/h (3 Bft) 97,87 %
04.06.2016 00:40 17,6 C 15,6 C 14,4 C 89 % 15 lf 1012,1 hPa 2,6 l/m 0 min 2 min 0 W/m 18,8 km/h (3 Bft) 97,83 %
04.06.2016 00:42 17,4 C 15,6 C 14,4 C 90 % 15 lf 1011,8 hPa 2,0 l/m 0 min 2 min 0 W/m 23,0 km/h (4 Bft) 95,74 %
04.06.2016 00:44 17,3 C 15,0 C 13,9 C 90 % 15 lf 1011,8 hPa 1,6 l/m 0 min 2 min 0 W/m 20,9 km/h (4 Bft) 97,87 %
04.06.2016 00:46 17,2 C 15,0 C 13,9 C 90 % 15 lf 1011,7 hPa 0,6 l/m 0 min 2 min 0 W/m 14,6 km/h (3 Bft) 100,00 %
04.06.2016 00:48 17,1 C 15,0 C 13,9 C 91 % 15 lf 1011,7 hPa 0,0 l/m 0 min 2 min 0 W/m 14,6 km/h (3 Bft) 100,00 %
04.06.2016 00:50 16,9 C 15,0 C 13,9 C 91 % 15 lf 1011,8 hPa 0,0 l/m 0 min 0 min 0 W/m 8,4 km/h (2 Bft) 100,00 %
04.06.2016 00:52 16,9 C 15,0 C 13,9 C 91 % 15 lf 1012,0 hPa 0,0 l/m 0 min 0 min 0 W/m 14,6 km/h (3 Bft) 93,48 %
04.06.2016 00:54 16,8 C 15,0 C 13,9 C 91 % 15 lf 1011,9 hPa 0,0 l/m 0 min 0 min 0 W/m 10,5 km/h (2 Bft) 100,00 %
04.06.2016 00:56 16,7 C 15,0 C 13,9 C 91 % 15 lf 1011,8 hPa 0,0 l/m 0 min 0 min 0 W/m 8,4 km/h (2 Bft) 100,00 %
04.06.2016 00:58 16,7 C 15,0 C 13,9 C 92 % 15 lf 1011,8 hPa 0,0 l/m 0 min 0 min 0 W/m 6,3 km/h (2 Bft) 97,87 %
04.06.2016 01:00 16,6 C 15,0 C 13,9 C 92 % 15 lf 1011,8 hPa 0,0 l/m 0 min 0 min 0 W/m 8,4 km/h (2 Bft) 100,00 %
04.06.2016 01:02 16,6 C 15,0 C 13,9 C 92 % 15 lf 1011,7 hPa 0,0 l/m 0 min 0 min 0 W/m 6,3 km/h (2 Bft) 100,00 %
04.06.2016 01:04 16,5 C 15,0 C 13,9 C 92 % 15 lf 1011,7 hPa 0,0 l/m 0 min 0 min 0 W/m 6,3 km/h (2 Bft) 97,83 %
04.06.2016 01:06 16,4 C 15,0 C 13,9 C 92 % 15 lf 1011,7 hPa 0,0 l/m 0 min 0 min 0 W/m 6,3 km/h (2 Bft) 97,87 %
04.06.2016 01:08 16,4 C 15,0 C 13,9 C 92 % 15 lf 1011,8 hPa 0,0 l/m 0 min 0 min 0 W/m 6,3 km/h (2 Bft) 97,87 %
04.06.2016 01:10 16,4 C 15,0 C 13,9 C 92 % 15 lf 1011,7 hPa 0,0 l/m 0 min 0 min 0 W/m 6,3 km/h (2 Bft) 100,00 %
04.06.2016 01:12 16,3 C 15,0 C 13,9 C 93 % 15 lf 1011,7 hPa 0,0 l/m 0 min 0 min 0 W/m 4,2 km/h (1 Bft) 100,00 %
04.06.2016 01:14 16,3 C 15,0 C 13,9 C 93 % 15 lf 1011,6 hPa 0,0 l/m 0 min 0 min 0 W/m 6,3 km/h (2 Bft) 100,00 %
04.06.2016 01:16 16,3 C 15,0 C 13,9 C 93 % 15 lf 1011,6 hPa 0,0 l/m 0 min 0 min 0 W/m 2,1 km/h (1 Bft) 100,00 %
04.06.2016 01:18 16,2 C 15,0 C 13,9 C 93 % 15 lf 1011,6 hPa 0,0 l/m 0 min 0 min 0 W/m 4,2 km/h (1 Bft) 100,00 %
04.06.2016 01:20 16,2 C 15,0 C 13,9 C 93 % 15 lf 1011,6 hPa 0,0 l/m 0 min 0 min 0 W/m 4,2 km/h (1 Bft) 97,87 %
04.06.2016 01:22 16,2 C 15,0 C 13,9 C 93 % 15 lf 1011,6 hPa 0,0 l/m 0 min 0 min 0 W/m 4,2 km/h (1 Bft) 97,87 %
04.06.2016 01:24 16,1 C 15,0 C 13,9 C 93 % 15 lf 1011,5 hPa 0,0 l/m 0 min 0 min 0 W/m 4,2 km/h (1 Bft) 100,00 %
04.06.2016 01:26 16,1 C 15,0 C 13,9 C 93 % 15 lf 1011,5 hPa 0,0 l/m 0 min 0 min 0 W/m 6,3 km/h (2 Bft) 100,00 %
04.06.2016 01:28 16,1 C 15,0 C 13,9 C 93 % 15 lf 1011,6 hPa 0,0 l/m 0 min 0 min 0 W/m 6,3 km/h (2 Bft) 100,00 %
04.06.2016 01:30 16,1 C 15,0 C 13,9 C 93 % 15 lf 1011,5 hPa 0,0 l/m 0 min 0 min 0 W/m 4,2 km/h (1 Bft) 100,00 %
04.06.2016 01:32 16,1 C 14,4 C 13,9 C 93 % 15 lf 1011,5 hPa 0,0 l/m 0 min 0 min 0 W/m 2,1 km/h (1 Bft) 97,87 %
04.06.2016 01:34 16,0 C 14,4 C 13,9 C 93 % 15 lf 1011,5 hPa 0,0 l/m 0 min 0 min 0 W/m 2,1 km/h (1 Bft) 97,87 %
04.06.2016 01:36 16,0 C 14,4 C 13,9 C 94 % 15 lf 1011,5 hPa 0,0 l/m 0 min 0 min 0 W/m 4,2 km/h (1 Bft) 97,87 %
04.06.2016 01:38 15,9 C 14,4 C 13,9 C 94 % 15 lf 1011,5 hPa 0,0 l/m 0 min 0 min 0 W/m 6,3 km/h (2 Bft) 97,83 %
04.06.2016 01:40 15,9 C 15,0 C 13,9 C 94 % 15 lf 1011,5 hPa 0,0 l/m 0 min 0 min 0 W/m 4,2 km/h (1 Bft) 97,87 %
04.06.2016 01:42 15,9 C 15,0 C 13,9 C 94 % 15 lf 1011,5 hPa 0,0 l/m 0 min 0 min 0 W/m 4,2 km/h (1 Bft) 97,87 %
04.06.2016 01:44 15,9 C 15,0 C 13,9 C 94 % 15 lf 1011,5 hPa 0,0 l/m 0 min 0 min 4 W/m 4,2 km/h (1 Bft) 97,87 %
04.06.2016 01:46 15,9 C 14,4 C 13,9 C 94 % 15 lf 1011,6 hPa 0,0 l/m 0 min 0 min 5 W/m 4,2 km/h (1 Bft) 95,74 %
04.06.2016 01:48 15,9 C 14,4 C 13,9 C 94 % 15 lf 1011,5 hPa 0,0 l/m 0 min 0 min 0 W/m 4,2 km/h (1 Bft) 95,74 %
04.06.2016 01:50 15,9 C 15,0 C 13,9 C 94 % 15 lf 1011,4 hPa 0,0 l/m 0 min 0 min 1 W/m 6,3 km/h (2 Bft) 97,83 %
04.06.2016 01:52 15,8 C 15,0 C 13,9 C 94 % 15 lf 1011,5 hPa 0,0 l/m 0 min 0 min 1 W/m 6,3 km/h (2 Bft) 97,87 %
04.06.2016 01:54 15,8 C 14,4 C 13,9 C 94 % 15 lf 1011,5 hPa 0,0 l/m 0 min 0 min 5 W/m 4,2 km/h (1 Bft) 97,87 %
04.06.2016 01:56 15,8 C 15,0 C 13,3 C 94 % 15 lf 1011,5 hPa 0,0 l/m 0 min 0 min 5 W/m 0,0 km/h (0 Bft) 95,74 %
04.06.2016 01:58 15,8 C 15,0 C 13,3 C 94 % 15 lf 1011,5 hPa 0,0 l/m 0 min 0 min 5 W/m 0,0 km/h (0 Bft) 97,87 %
04.06.2016 02:00 15,8 C 15,0 C 13,3 C 94 % 15 lf 1011,6 hPa 0,0 l/m 0 min 0 min 1 W/m 0,0 km/h (0 Bft) 95,74 %
04.06.2016 02:02 15,7 C 15,0 C 13,3 C 94 % 15 lf 1011,6 hPa 0,0 l/m 0 min 0 min 0 W/m 0,0 km/h (0 Bft) 95,65 %
04.06.2016 02:04 15,7 C 14,4 C 13,3 C 94 % 15 lf 1011,6 hPa 0,0 l/m 0 min 0 min 0 W/m 0,0 km/h (0 Bft) 93,62 %
04.06.2016 02:06 15,7 C 14,4 C 13,3 C 95 % 15 lf 1011,5 hPa 0,0 l/m 0 min 0 min 0 W/m 0,0 km/h (0 Bft) 100,00 %
04.06.2016 02:08 15,7 C 14,4 C 13,3 C 95 % 15 lf 1011,5 hPa 0,0 l/m 0 min 0 min 0 W/m 4,2 km/h (1 Bft) 89,36 %
04.06.2016 02:10 15,7 C 14,4 C 13,3 C 95 % 15 lf 1011,5 hPa 0,0 l/m 0 min 0 min 0 W/m 6,3 km/h (2 Bft) 100,00 %
04.06.2016 02:12 15,7 C 14,4 C 13,3 C 95 % 15 lf 1011,5 hPa 0,0 l/m 0 min 0 min 0 W/m 4,2 km/h (1 Bft) 100,00 %
04.06.2016 02:14 15,6 C 14,4 C 13,3 C 95 % 15 lf 1011,5 hPa 0,0 l/m 0 min 0 min 0 W/m 4,2 km/h (1 Bft) 97,83 %
04.06.2016 02:16 15,6 C 14,4 C 13,3 C 95 % 15 lf 1011,4 hPa 0,0 l/m 0 min 0 min 0 W/m 6,3 km/h (2 Bft) 93,62 %
04.06.2016 02:18 15,6 C 14,4 C 13,3 C 95 % 15 lf 1011,4 hPa 0,0 l/m 0 min 0 min 0 W/m 6,3 km/h (2 Bft) 97,87 %
04.06.2016 02:20 15,6 C 14,4 C 13,3 C 95 % 15 lf 1011,4 hPa 0,0 l/m 0 min 0 min 0 W/m 6,3 km/h (2 Bft) 95,74 %
04.06.2016 02:22 15,6 C 14,4 C 13,3 C 95 % 15 lf 1011,4 hPa 0,0 l/m 0 min 0 min 0 W/m 4,2 km/h (1 Bft) 95,74 %
04.06.2016 02:24 15,5 C 14,4 C 13,3 C 95 % 15 lf 1011,4 hPa 0,0 l/m 0 min 0 min 0 W/m 2,1 km/h (1 Bft) 97,83 %
04.06.2016 02:26 15,5 C 14,4 C 13,3 C 95 % 15 lf 1011,4 hPa 0,0 l/m 0 min 0 min 0 W/m 4,2 km/h (1 Bft) 93,62 %
04.06.2016 02:28 15,5 C 14,4 C 13,3 C 95 % 15 lf 1011,4 hPa 0,0 l/m 0 min 0 min 0 W/m 2,1 km/h (1 Bft) 95,74 %
04.06.2016 02:30 15,4 C 14,4 C 13,3 C 95 % 15 lf 1011,4 hPa 0,0 l/m 0 min 0 min 0 W/m 2,1 km/h (1 Bft) 97,87 %
04.06.2016 02:32 15,4 C 14,4 C 13,3 C 95 % 15 lf 1011,3 hPa 0,0 l/m 0 min 2 min 0 W/m 2,1 km/h (1 Bft) 95,74 %
04.06.2016 02:34 15,4 C 14,4 C 13,3 C 95 % 15 lf 1011,3 hPa 0,0 l/m 0 min 0 min 5 W/m 4,2 km/h (1 Bft) 97,87 %
04.06.2016 02:36 15,4 C 14,4 C 13,3 C 95 % 15 lf 1011,3 hPa 0,0 l/m 0 min 0 min 5 W/m 4,2 km/h (1 Bft) 95,65 %
04.06.2016 02:38 15,4 C 14,4 C 13,3 C 95 % 15 lf 1011,4 hPa 0,0 l/m 0 min 0 min 5 W/m 6,3 km/h (2 Bft) 93,62 %
04.06.2016 02:40 15,4 C 14,4 C 13,3 C 95 % 15 lf 1011,4 hPa 0,0 l/m 0 min 0 min 2 W/m 6,3 km/h (2 Bft) 97,87 %
04.06.2016 02:42 15,4 C 14,4 C 13,3 C 95 % 15 lf 1011,3 hPa 0,0 l/m 0 min 0 min 0 W/m 4,2 km/h (1 Bft) 97,87 %
04.06.2016 02:44 15,4 C 14,4 C 13,3 C 95 % 15 lf 1011,4 hPa 0,0 l/m 0 min 0 min 0 W/m 6,3 km/h (2 Bft) 95,74 %
04.06.2016 02:46 15,4 C 14,4 C 13,3 C 95 % 15 lf 1011,4 hPa 0,0 l/m 0 min 0 min 0 W/m 6,3 km/h (2 Bft) 93,62 %
04.06.2016 02:48 15,4 C 15,0 C 13,3 C 95 % 15 lf 1011,3 hPa 0,0 l/m 0 min 0 min 0 W/m 8,4 km/h (2 Bft) 93,48 %
04.06.2016 02:50 15,4 C 15,0 C 13,9 C 95 % 15 lf 1011,4 hPa 0,0 l/m 0 min 0 min 0 W/m 8,4 km/h (2 Bft) 93,62 %
04.06.2016 02:52 15,4 C 15,0 C 13,9 C 95 % 15 lf 1011,3 hPa 0,0 l/m 0 min 0 min 0 W/m 8,4 km/h (2 Bft) 93,62 %
04.06.2016 02:54 15,4 C 15,0 C 13,9 C 95 % 15 lf 1011,3 hPa 0,0 l/m 0 min 0 min 0 W/m 6,3 km/h (2 Bft) 93,62 %
04.06.2016 02:56 15,4 C 15,0 C 13,9 C 96 % 15 lf 1011,4 hPa 0,0 l/m 0 min 0 min 0 W/m 4,2 km/h (1 Bft) 91,49 %
04.06.2016 02:58 15,4 C 15,0 C 13,9 C 96 % 15 lf 1011,4 hPa 0,0 l/m 0 min 0 min 0 W/m 4,2 km/h (1 Bft) 95,74 %
04.06.2016 03:00 15,4 C 15,0 C 13,9 C 96 % 15 lf 1011,3 hPa 0,0 l/m 0 min 0 min 0 W/m 4,2 km/h (1 Bft) 95,65 %
04.06.2016 03:02 15,4 C 15,0 C 13,3 C 96 % 15 lf 1011,3 hPa 0,0 l/m 0 min 0 min 0 W/m 6,3 km/h (2 Bft) 95,74 %
04.06.2016 03:04 15,4 C 14,4 C 13,3 C 96 % 15 lf 1011,3 hPa 0,0 l/m 0 min 0 min 0 W/m 6,3 km/h (2 Bft) 91,49 %
04.06.2016 03:06 15,4 C 14,4 C 13,3 C 96 % 15 lf 1011,3 hPa 0,0 l/m 0 min 0 min 0 W/m 4,2 km/h (1 Bft) 95,74 %
04.06.2016 03:08 15,4 C 14,4 C 13,3 C 96 % 15 lf 1011,3 hPa 0,0 l/m 0 min 0 min 0 W/m 4,2 km/h (1 Bft) 95,74 %
04.06.2016 03:10 15,4 C 14,4 C 13,3 C 96 % 15 lf 1011,3 hPa 0,0 l/m 0 min 0 min 0 W/m 4,2 km/h (1 Bft) 91,49 %
04.06.2016 03:12 15,4 C 14,4 C 13,3 C 96 % 15 lf 1011,3 hPa 0,0 l/m 0 min 0 min 0 W/m 2,1 km/h (1 Bft) 86,96 %
04.06.2016 03:14 15,4 C 14,4 C 13,3 C 96 % 15 lf 1011,3 hPa 0,0 l/m 0 min 0 min 0 W/m 4,2 km/h (1 Bft) 95,74 %
04.06.2016 03:16 15,4 C 14,4 C 13,3 C 96 % 15 lf 1011,2 hPa 0,0 l/m 0 min 0 min 0 W/m 4,2 km/h (1 Bft) 95,74 %
04.06.2016 03:18 15,4 C 14,4 C 13,3 C 96 % 15 lf 1011,2 hPa 0,0 l/m 0 min 0 min 0 W/m 4,2 km/h (1 Bft) 95,74 %
04.06.2016 03:20 15,4 C 14,4 C 13,3 C 96 % 15 lf 1011,3 hPa 0,0 l/m 0 min 0 min 0 W/m 4,2 km/h (1 Bft) 91,49 %
04.06.2016 03:22 15,3 C 15,0 C 13,3 C 96 % 15 lf 1011,3 hPa 0,0 l/m 0 min 0 min 0 W/m 4,2 km/h (1 Bft) 95,65 %
04.06.2016 03:24 15,3 C 15,0 C 13,3 C 96 % 15 lf 1011,3 hPa 0,0 l/m 0 min 0 min 0 W/m 2,1 km/h (1 Bft) 95,74 %
04.06.2016 03:26 15,3 C 14,4 C 13,3 C 96 % 15 lf 1011,3 hPa 0,0 l/m 0 min 0 min 0 W/m 2,1 km/h (1 Bft) 95,74 %
04.06.2016 03:28 15,3 C 14,4 C 13,3 C 96 % 15 lf 1011,3 hPa 0,0 l/m 0 min 0 min 0 W/m 4,2 km/h (1 Bft) 93,62 %
04.06.2016 03:30 15,3 C 14,4 C 13,3 C 96 % 15 lf 1011,4 hPa 0,0 l/m 0 min 0 min 0 W/m 2,1 km/h (1 Bft) 91,49 %
04.06.2016 03:32 15,3 C 14,4 C 13,3 C 96 % 15 lf 1011,4 hPa 0,0 l/m 0 min 0 min 0 W/m 2,1 km/h (1 Bft) 93,62 %
04.06.2016 03:34 15,3 C 14,4 C 13,3 C 96 % 15 lf 1011,3 hPa 0,0 l/m 0 min 0 min 0 W/m 2,1 km/h (1 Bft) 93,48 %
04.06.2016 03:36 15,3 C 14,4 C 13,3 C 96 % 15 lf 1011,3 hPa 0,0 l/m 0 min 0 min 0 W/m 0,0 km/h (0 Bft) 95,74 %
04.06.2016 03:38 15,3 C 14,4 C 13,3 C 96 % 15 lf 1011,3 hPa 0,0 l/m 0 min 0 min 0 W/m 4,2 km/h (1 Bft) 95,74 %
04.06.2016 03:40 15,3 C 14,4 C 13,3 C 96 % 15 lf 1011,3 hPa 0,0 l/m 0 min 0 min 0 W/m 4,2 km/h (1 Bft) 95,74 %
04.06.2016 03:42 15,3 C 14,4 C 13,3 C 96 % 15 lf 1011,3 hPa 0,0 l/m 0 min 0 min 0 W/m 4,2 km/h (1 Bft) 91,49 %
04.06.2016 03:44 15,2 C 14,4 C 13,3 C 96 % 15 lf 1011,3 hPa 0,0 l/m 0 min 0 min 0 W/m 2,1 km/h (1 Bft) 93,62 %
04.06.2016 03:46 15,2 C 14,4 C 13,3 C 96 % 15 lf 1011,3 hPa 0,0 l/m 0 min 0 min 0 W/m 2,1 km/h (1 Bft) 95,65 %
04.06.2016 03:48 15,2 C 14,4 C 13,9 C 96 % 15 lf 1011,3 hPa 0,0 l/m 0 min 0 min 0 W/m 2,1 km/h (1 Bft) 93,62 %
04.06.2016 03:50 15,2 C 14,4 C 13,9 C 96 % 15 lf 1011,3 hPa 0,0 l/m 0 min 0 min 0 W/m 2,1 km/h (1 Bft) 93,62 %
04.06.2016 03:52 15,2 C 14,4 C 13,9 C 96 % 15 lf 1011,3 hPa 0,0 l/m 0 min 0 min 0 W/m 0,0 km/h (0 Bft) 95,74 %
04.06.2016 03:54 15,2 C 14,4 C 13,9 C 96 % 15 lf 1011,3 hPa 0,0 l/m 0 min 0 min 0 W/m 0,0 km/h (0 Bft) 95,74 %
04.06.2016 03:56 15,2 C 14,4 C 13,9 C 96 % 15 lf 1011,3 hPa 0,0 l/m 0 min 0 min 0 W/m 2,1 km/h (1 Bft) 95,74 %
04.06.2016 03:58 15,2 C 15,0 C 13,9 C 96 % 15 lf 1011,3 hPa 0,0 l/m 0 min 0 min 0 W/m 4,2 km/h (1 Bft) 95,65 %
04.06.2016 04:00 15,2 C 15,0 C 13,9 C 96 % 15 lf 1011,3 hPa 0,0 l/m 0 min 0 min 0 W/m 4,2 km/h (1 Bft) 93,62 %
04.06.2016 04:02 15,2 C 15,0 C 13,9 C 96 % 15 lf 1011,3 hPa 0,0 l/m 0 min 0 min 0 W/m 4,2 km/h (1 Bft) 100,00 %
04.06.2016 04:04 15,2 C 15,0 C 13,9 C 96 % 15 lf 1011,4 hPa 0,0 l/m 0 min 0 min 0 W/m 4,2 km/h (1 Bft) 97,92 %
04.06.2016 04:06 15,2 C 15,0 C 13,9 C 96 % 15 lf 1011,2 hPa 0,0 l/m 0 min 0 min 0 W/m 4,2 km/h (1 Bft) 93,62 %
04.06.2016 04:08 15,3 C 15,0 C 13,9 C 96 % 15 lf 1011,3 hPa 0,0 l/m 0 min 0 min 0 W/m 4,2 km/h (1 Bft) 95,74 %
04.06.2016 04:10 15,3 C 15,0 C 13,9 C 96 % 15 lf 1011,3 hPa 0,0 l/m 0 min 0 min 0 W/m 2,1 km/h (1 Bft) 95,65 %
04.06.2016 04:12 15,3 C 15,0 C 13,9 C 96 % 15 lf 1011,3 hPa 0,0 l/m 0 min 0 min 0 W/m 4,2 km/h (1 Bft) 100,00 %
04.06.2016 04:14 15,3 C 15,0 C 13,9 C 96 % 15 lf 1011,2 hPa 0,0 l/m 0 min 0 min 0 W/m 4,2 km/h (1 Bft) 97,87 %
04.06.2016 04:16 15,3 C 15,0 C 13,9 C 96 % 15 lf 1011,2 hPa 0,0 l/m 0 min 0 min 0 W/m 4,2 km/h (1 Bft) 100,00 %
04.06.2016 04:18 15,3 C 15,0 C 13,9 C 96 % 15 lf 1011,3 hPa 0,0 l/m 0 min 0 min 0 W/m 4,2 km/h (1 Bft) 95,74 %
04.06.2016 04:20 15,3 C 15,0 C 13,9 C 96 % 15 lf 1011,3 hPa 0,0 l/m 0 min 0 min 0 W/m 2,1 km/h (1 Bft) 100,00 %
04.06.2016 04:22 15,3 C 15,0 C 13,9 C 96 % 15 lf 1011,4 hPa 0,0 l/m 0 min 0 min 0 W/m 4,2 km/h (1 Bft) 100,00 %
04.06.2016 04:24 15,3 C 15,0 C 13,9 C 96 % 15 lf 1011,3 hPa 0,0 l/m 0 min 0 min 0 W/m 2,1 km/h (1 Bft) 100,00 %
04.06.2016 04:26 15,3 C 15,0 C 13,9 C 96 % 15 lf 1011,3 hPa 0,0 l/m 0 min 0 min 0 W/m 2,1 km/h (1 Bft) 97,87 %
04.06.2016 04:28 15,3 C 15,0 C 13,9 C 96 % 15 lf 1011,3 hPa 0,0 l/m 0 min 0 min 0 W/m 0,0 km/h (0 Bft) 95,74 %
04.06.2016 04:30 15,3 C 15,0 C 13,9 C 96 % 15 lf 1011,3 hPa 0,0 l/m 0 min 0 min 0 W/m 0,0 km/h (0 Bft) 97,87 %
04.06.2016 04:32 15,3 C 15,0 C 13,9 C 96 % 15 lf 1011,4 hPa 0,0 l/m 0 min 0 min 0 W/m 2,1 km/h (1 Bft) 97,83 %
04.06.2016 04:34 15,3 C 15,0 C 13,9 C 96 % 15 lf 1011,4 hPa 0,0 l/m 0 min 0 min 0 W/m 4,2 km/h (1 Bft) 97,87 %
04.06.2016 04:36 15,3 C 15,0 C 13,9 C 96 % 15 lf 1011,3 hPa 0,0 l/m 0 min 0 min 0 W/m 4,2 km/h (1 Bft) 100,00 %
04.06.2016 04:38 15,3 C 15,0 C 13,9 C 97 % 15 lf 1011,3 hPa 0,0 l/m 0 min 0 min 0 W/m 2,1 km/h (1 Bft) 95,74 %
04.06.2016 04:40 15,3 C 15,0 C 14,4 C 97 % 15 lf 1011,3 hPa 0,0 l/m 0 min 0 min 0 W/m 0,0 km/h (0 Bft) 100,00 %
04.06.2016 04:42 15,3 C 15,0 C 14,4 C 97 % 15 lf 1011,3 hPa 0,0 l/m 0 min 0 min 0 W/m 4,2 km/h (1 Bft) 97,87 %
04.06.2016 04:44 15,3 C 15,0 C 14,4 C 97 % 15 lf 1011,3 hPa 0,0 l/m 0 min 0 min 0 W/m 4,2 km/h (1 Bft) 95,65 %
04.06.2016 04:46 15,3 C 15,0 C 14,4 C 97 % 15 lf 1011,3 hPa 0,0 l/m 0 min 0 min 0 W/m 4,2 km/h (1 Bft) 100,00 %
04.06.2016 04:48 15,3 C 15,6 C 14,4 C 97 % 15 lf 1011,3 hPa 0,0 l/m 0 min 0 min 0 W/m 0,0 km/h (0 Bft) 100,00 %
04.06.2016 04:50 15,3 C 15,6 C 14,4 C 97 % 15 lf 1011,3 hPa 0,0 l/m 0 min 0 min 0 W/m 4,2 km/h (1 Bft) 95,74 %
04.06.2016 04:52 15,4 C 15,6 C 14,4 C 97 % 15 lf 1011,3 hPa 0,0 l/m 0 min 0 min 0 W/m 12,6 km/h (3 Bft) 100,00 %
04.06.2016 04:54 15,4 C 15,6 C 14,4 C 97 % 15 lf 1011,3 hPa 0,0 l/m 0 min 0 min 0 W/m 8,4 km/h (2 Bft) 100,00 %
04.06.2016 04:56 15,4 C 15,6 C 14,4 C 97 % 15 lf 1011,3 hPa 0,0 l/m 0 min 0 min 0 W/m 10,5 km/h (2 Bft) 100,00 %
04.06.2016 04:58 15,4 C 15,6 C 14,4 C 97 % 15 lf 1011,3 hPa 0,0 l/m 0 min 0 min 0 W/m 8,4 km/h (2 Bft) 97,87 %
04.06.2016 05:00 15,4 C 15,6 C 14,4 C 97 % 15 lf 1011,3 hPa 0,0 l/m 0 min 0 min 0 W/m 10,5 km/h (2 Bft) 97,87 %
04.06.2016 05:02 15,4 C 15,6 C 14,4 C 97 % 15 lf 1011,3 hPa 0,0 l/m 0 min 0 min 0 W/m 8,4 km/h (2 Bft) 96,00 %
04.06.2016 05:04 15,5 C 15,6 C 15,0 C 97 % 15 lf 1011,3 hPa 0,0 l/m 0 min 0 min 0 W/m 6,3 km/h (2 Bft) 100,00 %
04.06.2016 05:06 15,6 C 15,6 C 15,0 C 97 % 15 lf 1011,3 hPa 0,0 l/m 0 min 0 min 0 W/m 8,4 km/h (2 Bft) 95,65 %
04.06.2016 05:08 15,6 C 15,6 C 15,0 C 97 % 15 lf 1011,3 hPa 0,0 l/m 0 min 0 min 0 W/m 8,4 km/h (2 Bft) 97,87 %
04.06.2016 05:10 15,6 C 16,1 C 15,0 C 97 % 15 lf 1011,3 hPa 0,0 l/m 0 min 0 min 0 W/m 6,3 km/h (2 Bft) 95,74 %
04.06.2016 05:12 15,7 C 16,1 C 15,0 C 97 % 15 lf 1011,3 hPa 0,0 l/m 0 min 0 min 0 W/m 14,6 km/h (3 Bft) 97,87 %
04.06.2016 05:14 15,7 C 16,1 C 15,0 C 97 % 15 lf 1011,3 hPa 0,0 l/m 0 min 0 min 0 W/m 12,6 km/h (3 Bft) 95,74 %
04.06.2016 05:16 15,8 C 16,1 C 15,0 C 97 % 15 lf 1011,3 hPa 0,0 l/m 0 min 0 min 0 W/m 10,5 km/h (2 Bft) 95,74 %
04.06.2016 05:18 15,8 C 16,1 C 15,0 C 97 % 15 lf 1011,4 hPa 0,0 l/m 0 min 0 min 0 W/m 10,5 km/h (2 Bft) 95,65 %
04.06.2016 05:20 15,9 C 16,1 C 15,0 C 98 % 15 lf 1011,4 hPa 0,0 l/m 0 min 0 min 0 W/m 6,3 km/h (2 Bft) 97,87 %
04.06.2016 05:22 15,9 C 16,1 C 15,0 C 98 % 15 lf 1011,4 hPa 0,0 l/m 0 min 0 min 3 W/m 6,3 km/h (2 Bft) 95,74 %
04.06.2016 05:24 15,9 C 16,1 C 15,0 C 98 % 15 lf 1011,4 hPa 0,0 l/m 0 min 0 min 5 W/m 10,5 km/h (2 Bft) 95,74 %
04.06.2016 05:26 16,0 C 16,1 C 15,0 C 98 % 15 lf 1011,3 hPa 0,0 l/m 0 min 0 min 5 W/m 10,5 km/h (2 Bft) 97,87 %
04.06.2016 05:28 16,1 C 16,1 C 15,0 C 98 % 15 lf 1011,4 hPa 0,0 l/m 0 min 0 min 5 W/m 6,3 km/h (2 Bft) 95,74 %
04.06.2016 05:30 16,1 C 16,1 C 15,0 C 98 % 15 lf 1011,4 hPa 0,0 l/m 0 min 0 min 5 W/m 8,4 km/h (2 Bft) 95,65 %
04.06.2016 05:32 16,1 C 16,1 C 15,0 C 98 % 15 lf 1011,5 hPa 0,0 l/m 0 min 0 min 5 W/m 8,4 km/h (2 Bft) 95,74 %
04.06.2016 05:34 16,1 C 16,1 C 15,0 C 98 % 15 lf 1011,4 hPa 0,0 l/m 0 min 0 min 5 W/m 8,4 km/h (2 Bft) 95,74 %
04.06.2016 05:36 16,1 C 16,1 C 15,0 C 98 % 15 lf 1011,5 hPa 0,0 l/m 0 min 0 min 6 W/m 8,4 km/h (2 Bft) 87,23 %
04.06.2016 05:38 16,1 C 16,1 C 15,0 C 98 % 15 lf 1011,5 hPa 0,0 l/m 0 min 0 min 7 W/m 12,6 km/h (3 Bft) 89,36 %
04.06.2016 05:40 16,2 C 16,1 C 15,0 C 98 % 15 lf 1011,6 hPa 0,0 l/m 0 min 0 min 7 W/m 10,5 km/h (2 Bft) 91,49 %
04.06.2016 05:42 16,2 C 16,1 C 15,0 C 98 % 15 lf 1011,5 hPa 0,0 l/m 0 min 0 min 7 W/m 10,5 km/h (2 Bft) 93,48 %
04.06.2016 05:44 16,2 C 16,1 C 15,0 C 98 % 15 lf 1011,5 hPa 0,0 l/m 0 min 0 min 9 W/m 12,6 km/h (3 Bft) 93,62 %
04.06.2016 05:46 16,2 C 16,1 C 15,0 C 98 % 15 lf 1011,4 hPa 0,0 l/m 0 min 0 min 9 W/m 12,6 km/h (3 Bft) 93,62 %
04.06.2016 05:48 16,2 C 16,1 C 15,0 C 98 % 15 lf 1011,5 hPa 0,0 l/m 0 min 0 min 9 W/m 14,6 km/h (3 Bft) 93,62 %
04.06.2016 05:50 16,2 C 16,1 C 15,0 C 98 % 15 lf 1011,4 hPa 0,0 l/m 0 min 0 min 9 W/m 14,6 km/h (3 Bft) 91,49 %
04.06.2016 05:52 16,2 C 16,1 C 15,0 C 98 % 15 lf 1011,5 hPa 0,0 l/m 0 min 0 min 10 W/m 10,5 km/h (2 Bft) 91,49 %
04.06.2016 05:54 16,2 C 16,1 C 15,0 C 98 % 15 lf 1011,5 hPa 0,0 l/m 0 min 0 min 11 W/m 12,6 km/h (3 Bft) 93,48 %
04.06.2016 05:56 16,2 C 16,1 C 15,0 C 98 % 15 lf 1011,4 hPa 0,0 l/m 0 min 0 min 11 W/m 8,4 km/h (2 Bft) 91,49 %
04.06.2016 05:58 16,2 C 16,1 C 15,0 C 98 % 15 lf 1011,4 hPa 0,0 l/m 0 min 0 min 12 W/m 10,5 km/h (2 Bft) 93,62 %
04.06.2016 06:00 16,2 C 16,1 C 15,0 C 98 % 15 lf 1011,5 hPa 0,0 l/m 0 min 0 min 12 W/m 10,5 km/h (2 Bft) 95,74 %
04.06.2016 06:02 16,2 C 16,1 C 15,0 C 98 % 15 lf 1011,5 hPa 0,0 l/m 0 min 0 min 12 W/m 6,3 km/h (2 Bft) 97,87 %
04.06.2016 06:04 16,2 C 16,1 C 15,0 C 98 % 15 lf 1011,5 hPa 0,0 l/m 0 min 0 min 12 W/m 6,3 km/h (2 Bft) 97,87 %
04.06.2016 06:06 16,2 C 16,1 C 15,0 C 98 % 15 lf 1011,6 hPa 0,0 l/m 0 min 0 min 14 W/m 10,5 km/h (2 Bft) 97,83 %
04.06.2016 06:08 16,2 C 16,1 C 15,0 C 98 % 15 lf 1011,6 hPa 0,0 l/m 0 min 0 min 14 W/m 12,6 km/h (3 Bft) 97,87 %
04.06.2016 06:10 16,2 C 16,1 C 15,0 C 98 % 15 lf 1011,6 hPa 0,0 l/m 0 min 0 min 14 W/m 4,2 km/h (1 Bft) 93,62 %
04.06.2016 06:12 16,2 C 16,1 C 15,0 C 98 % 15 lf 1011,7 hPa 0,0 l/m 0 min 0 min 16 W/m 6,3 km/h (2 Bft) 95,74 %
04.06.2016 06:14 16,2 C 16,1 C 15,0 C 98 % 15 lf 1011,6 hPa 0,0 l/m 0 min 0 min 17 W/m 8,4 km/h (2 Bft) 97,87 %
04.06.2016 06:16 16,2 C 16,1 C 15,0 C 98 % 15 lf 1011,6 hPa 0,0 l/m 0 min 0 min 19 W/m 12,6 km/h (3 Bft) 97,83 %
04.06.2016 06:18 16,2 C 16,1 C 15,0 C 98 % 15 lf 1011,6 hPa 0,0 l/m 0 min 0 min 19 W/m 12,6 km/h (3 Bft) 95,74 %
04.06.2016 06:20 16,2 C 16,1 C 15,0 C 98 % 15 lf 1011,7 hPa 0,0 l/m 0 min 0 min 19 W/m 6,3 km/h (2 Bft) 97,87 %
04.06.2016 06:22 16,2 C 16,1 C 15,0 C 98 % 15 lf 1011,6 hPa 0,0 l/m 0 min 0 min 18 W/m 10,5 km/h (2 Bft) 97,87 %
04.06.2016 06:24 16,2 C 16,1 C 15,0 C 98 % 15 lf 1011,7 hPa 0,0 l/m 0 min 0 min 18 W/m 8,4 km/h (2 Bft) 95,74 %
04.06.2016 06:26 16,2 C 16,1 C 15,0 C 98 % 15 lf 1011,7 hPa 0,0 l/m 0 min 0 min 17 W/m 6,3 km/h (2 Bft) 97,87 %
04.06.2016 06:28 16,2 C 16,1 C 15,0 C 98 % 15 lf 1011,8 hPa 0,0 l/m 0 min 0 min 16 W/m 10,5 km/h (2 Bft) 97,83 %
04.06.2016 06:30 16,2 C 16,1 C 15,0 C 98 % 15 lf 1011,7 hPa 0,0 l/m 0 min 0 min 16 W/m 6,3 km/h (2 Bft) 100,00 %
04.06.2016 06:32 16,2 C 16,1 C 15,0 C 98 % 15 lf 1011,8 hPa 0,0 l/m 0 min 0 min 16 W/m 6,3 km/h (2 Bft) 95,74 %
04.06.2016 06:34 16,1 C 16,1 C 15,0 C 98 % 15 lf 1011,8 hPa 0,0 l/m 0 min 0 min 16 W/m 8,4 km/h (2 Bft) 100,00 %
04.06.2016 06:36 16,1 C 15,6 C 15,0 C 98 % 15 lf 1011,8 hPa 0,0 l/m 0 min 0 min 16 W/m 10,5 km/h (2 Bft) 100,00 %
04.06.2016 06:38 16,1 C 15,6 C 15,0 C 98 % 15 lf 1011,7 hPa 0,0 l/m 0 min 0 min 16 W/m 8,4 km/h (2 Bft) 100,00 %
04.06.2016 06:40 16,1 C 15,6 C 15,0 C 98 % 15 lf 1011,8 hPa 0,0 l/m 0 min 0 min 16 W/m 10,5 km/h (2 Bft) 100,00 %
04.06.2016 06:42 16,1 C 15,6 C 15,0 C 98 % 15 lf 1011,9 hPa 0,0 l/m 0 min 0 min 16 W/m 6,3 km/h (2 Bft) 100,00 %
04.06.2016 06:44 16,1 C 15,6 C 15,0 C 98 % 15 lf 1011,9 hPa 0,0 l/m 0 min 0 min 16 W/m 10,5 km/h (2 Bft) 100,00 %
04.06.2016 06:46 16,1 C 15,6 C 15,0 C 98 % 15 lf 1011,9 hPa 0,0 l/m 0 min 0 min 16 W/m 12,6 km/h (3 Bft) 95,74 %
04.06.2016 06:48 16,1 C 15,6 C 15,0 C 98 % 15 lf 1011,9 hPa 0,0 l/m 0 min 0 min 18 W/m 12,6 km/h (3 Bft) 95,74 %
04.06.2016 06:50 16,1 C 15,6 C 15,0 C 98 % 15 lf 1011,8 hPa 0,0 l/m 0 min 0 min 19 W/m 12,6 km/h (3 Bft) 95,74 %
04.06.2016 06:52 16,0 C 15,6 C 15,0 C 98 % 15 lf 1011,8 hPa 0,0 l/m 0 min 0 min 21 W/m 8,4 km/h (2 Bft) 97,83 %
04.06.2016 06:54 16,0 C 15,6 C 15,0 C 98 % 15 lf 1011,8 hPa 0,0 l/m 0 min 0 min 25 W/m 10,5 km/h (2 Bft) 97,87 %
04.06.2016 06:56 16,0 C 15,6 C 15,0 C 98 % 15 lf 1011,8 hPa 0,0 l/m 0 min 0 min 27 W/m 8,4 km/h (2 Bft) 97,87 %
04.06.2016 06:58 15,9 C 15,6 C 15,0 C 98 % 15 lf 1011,8 hPa 0,0 l/m 0 min 0 min 29 W/m 14,6 km/h (3 Bft) 97,87 %
04.06.2016 07:00 15,9 C 15,6 C 15,0 C 98 % 15 lf 1011,8 hPa 0,0 l/m 0 min 0 min 30 W/m 10,5 km/h (2 Bft) 97,87 %
04.06.2016 07:02 15,9 C 15,6 C 15,0 C 98 % 15 lf 1011,9 hPa 0,0 l/m 0 min 0 min 28 W/m 4,2 km/h (1 Bft) 95,74 %
04.06.2016 07:04 15,9 C 15,6 C 15,0 C 98 % 15 lf 1011,9 hPa 0,0 l/m 0 min 0 min 26 W/m 10,5 km/h (2 Bft) 95,65 %
04.06.2016 07:06 15,9 C 15,6 C 15,0 C 98 % 15 lf 1011,9 hPa 0,0 l/m 0 min 0 min 26 W/m 8,4 km/h (2 Bft) 93,62 %
04.06.2016 07:08 15,9 C 15,6 C 15,0 C 98 % 15 lf 1011,9 hPa 0,0 l/m 0 min 0 min 26 W/m 10,5 km/h (2 Bft) 95,74 %
04.06.2016 07:10 15,9 C 15,6 C 15,0 C 98 % 15 lf 1011,9 hPa 0,0 l/m 0 min 0 min 26 W/m 6,3 km/h (2 Bft) 97,87 %
04.06.2016 07:12 15,9 C 15,6 C 15,0 C 98 % 15 lf 1011,9 hPa 0,0 l/m 0 min 0 min 28 W/m 10,5 km/h (2 Bft) 97,87 %
04.06.2016 07:14 15,9 C 15,6 C 15,0 C 98 % 15 lf 1011,9 hPa 0,0 l/m 0 min 0 min 33 W/m 6,3 km/h (2 Bft) 95,74 %
04.06.2016 07:16 15,9 C 15,6 C 15,0 C 98 % 15 lf 1012,0 hPa 0,0 l/m 0 min 0 min 47 W/m 8,4 km/h (2 Bft) 97,83 %
04.06.2016 07:18 15,9 C 15,6 C 15,0 C 98 % 15 lf 1012,0 hPa 0,0 l/m 0 min 0 min 52 W/m 10,5 km/h (2 Bft) 95,74 %
04.06.2016 07:20 15,9 C 15,6 C 15,0 C 98 % 15 lf 1012,0 hPa 0,0 l/m 0 min 0 min 50 W/m 10,5 km/h (2 Bft) 93,62 %
04.06.2016 07:22 15,9 C 16,1 C 15,0 C 98 % 15 lf 1011,9 hPa 0,0 l/m 0 min 0 min 62 W/m 12,6 km/h (3 Bft) 95,74 %
04.06.2016 07:24 15,9 C 15,6 C 15,0 C 98 % 15 lf 1011,9 hPa 0,0 l/m 0 min 0 min 65 W/m 12,6 km/h (3 Bft) 93,62 %
04.06.2016 07:26 15,9 C 16,1 C 15,0 C 98 % 15 lf 1011,8 hPa 0,0 l/m 0 min 0 min 65 W/m 10,5 km/h (2 Bft) 91,49 %
04.06.2016 07:28 15,9 C 16,1 C 15,0 C 98 % 15 lf 1011,8 hPa 0,0 l/m 0 min 0 min 59 W/m 12,6 km/h (3 Bft) 93,48 %
04.06.2016 07:30 15,9 C 16,1 C 15,0 C 98 % 15 lf 1011,8 hPa 0,0 l/m 0 min 0 min 55 W/m 12,6 km/h (3 Bft) 95,74 %
04.06.2016 07:32 15,9 C 16,1 C 15,0 C 98 % 15 lf 1011,9 hPa 0,0 l/m 0 min 0 min 52 W/m 12,6 km/h (3 Bft) 95,74 %
04.06.2016 07:34 15,9 C 16,1 C 15,0 C 98 % 15 lf 1011,9 hPa 0,0 l/m 0 min 0 min 50 W/m 10,5 km/h (2 Bft) 91,49 %
04.06.2016 07:36 15,9 C 16,1 C 15,0 C 98 % 15 lf 1011,9 hPa 0,0 l/m 0 min 0 min 54 W/m 10,5 km/h (2 Bft) 95,74 %
04.06.2016 07:38 15,9 C 16,1 C 15,0 C 98 % 15 lf 1011,9 hPa 0,0 l/m 0 min 0 min 56 W/m 10,5 km/h (2 Bft) 95,65 %
04.06.2016 07:40 15,9 C 16,1 C 15,0 C 98 % 15 lf 1011,9 hPa 0,0 l/m 0 min 0 min 38 W/m 10,5 km/h (2 Bft) 95,74 %
04.06.2016 07:42 15,9 C 16,1 C 15,0 C 98 % 15 lf 1011,9 hPa 0,0 l/m 0 min 0 min 33 W/m 10,5 km/h (2 Bft) 91,49 %
04.06.2016 07:44 15,9 C 16,1 C 15,0 C 98 % 15 lf 1011,9 hPa 0,0 l/m 0 min 0 min 59 W/m 6,3 km/h (2 Bft) 95,74 %
04.06.2016 07:46 15,9 C 16,1 C 15,0 C 98 % 15 lf 1011,9 hPa 0,0 l/m 0 min 0 min 61 W/m 10,5 km/h (2 Bft) 95,74 %
04.06.2016 07:48 15,9 C 16,1 C 15,0 C 98 % 15 lf 1012,0 hPa 0,0 l/m 0 min 0 min 36 W/m 12,6 km/h (3 Bft) 91,49 %
04.06.2016 07:50 15,9 C 16,1 C 15,0 C 98 % 15 lf 1011,9 hPa 0,0 l/m 0 min 0 min 36 W/m 10,5 km/h (2 Bft) 95,65 %
04.06.2016 07:52 15,9 C 16,1 C 15,0 C 98 % 15 lf 1012,0 hPa 0,0 l/m 0 min 0 min 53 W/m 10,5 km/h (2 Bft) 97,87 %
04.06.2016 07:54 15,9 C 16,1 C 15,0 C 98 % 15 lf 1012,0 hPa 0,0 l/m 0 min 0 min 65 W/m 8,4 km/h (2 Bft) 97,87 %
04.06.2016 07:56 15,9 C 16,1 C 15,0 C 99 % 15 lf 1012,0 hPa 0,0 l/m 0 min 0 min 67 W/m 10,5 km/h (2 Bft) 97,87 %
04.06.2016 07:58 15,9 C 16,1 C 15,0 C 99 % 15 lf 1012,0 hPa 0,0 l/m 0 min 0 min 65 W/m 6,3 km/h (2 Bft) 100,00 %
04.06.2016 08:00 15,9 C 16,1 C 15,6 C 99 % 15 lf 1012,1 hPa 0,0 l/m 0 min 0 min 74 W/m 4,2 km/h (1 Bft) 100,00 %
04.06.2016 08:02 15,9 C 16,1 C 15,6 C 99 % 15 lf 1012,1 hPa 0,0 l/m 0 min 0 min 78 W/m 8,4 km/h (2 Bft) 95,65 %
04.06.2016 08:04 15,9 C 16,1 C 15,6 C 99 % 15 lf 1012,2 hPa 0,0 l/m 0 min 0 min 80 W/m 8,4 km/h (2 Bft) 97,87 %
04.06.2016 08:06 15,9 C 16,1 C 15,6 C 99 % 15 lf 1012,2 hPa 0,0 l/m 0 min 0 min 84 W/m 8,4 km/h (2 Bft) 97,87 %
04.06.2016 08:08 16,0 C 16,1 C 15,6 C 99 % 15 lf 1012,1 hPa 0,0 l/m 0 min 0 min 84 W/m 6,3 km/h (2 Bft) 95,74 %
04.06.2016 08:10 16,0 C 16,1 C 15,6 C 99 % 15 lf 1012,1 hPa 0,0 l/m 0 min 0 min 83 W/m 6,3 km/h (2 Bft) 97,87 %
04.06.2016 08:12 16,0 C 16,1 C 15,6 C 99 % 15 lf 1012,1 hPa 0,0 l/m 0 min 0 min 80 W/m 8,4 km/h (2 Bft) 93,62 %
04.06.2016 08:14 16,0 C 16,1 C 15,6 C 99 % 15 lf 1012,2 hPa 0,0 l/m 0 min 0 min 80 W/m 10,5 km/h (2 Bft) 97,83 %
04.06.2016 08:16 16,0 C 16,1 C 15,6 C 99 % 15 lf 1012,2 hPa 0,0 l/m 0 min 0 min 78 W/m 10,5 km/h (2 Bft) 95,74 %
04.06.2016 08:18 16,0 C 16,1 C 15,6 C 99 % 15 lf 1012,1 hPa 0,0 l/m 0 min 0 min 64 W/m 10,5 km/h (2 Bft) 97,87 %
04.06.2016 08:20 16,1 C 16,1 C 15,6 C 99 % 15 lf 1012,2 hPa 0,0 l/m 0 min 0 min 66 W/m 14,6 km/h (3 Bft) 97,87 %
04.06.2016 08:22 16,1 C 16,1 C 15,6 C 99 % 15 lf 1012,1 hPa 0,0 l/m 0 min 0 min 80 W/m 8,4 km/h (2 Bft) 93,62 %
04.06.2016 08:24 16,1 C 16,1 C 16,1 C 99 % 15 lf 1012,1 hPa 0,0 l/m 0 min 0 min 85 W/m 8,4 km/h (2 Bft) 91,49 %
04.06.2016 08:26 16,1 C 16,7 C 16,1 C 99 % 15 lf 1012,2 hPa 0,0 l/m 0 min 0 min 93 W/m 10,5 km/h (2 Bft) 93,48 %
04.06.2016 08:28 16,1 C 16,7 C 16,1 C 99 % 15 lf 1012,3 hPa 0,0 l/m 0 min 0 min 94 W/m 10,5 km/h (2 Bft) 95,74 %
04.06.2016 08:30 16,1 C 16,7 C 16,1 C 99 % 15 lf 1012,2 hPa 0,0 l/m 0 min 0 min 78 W/m 6,3 km/h (2 Bft) 95,74 %
04.06.2016 08:32 16,1 C 16,7 C 16,1 C 99 % 15 lf 1012,2 hPa 0,0 l/m 0 min 0 min 78 W/m 8,4 km/h (2 Bft) 93,62 %
04.06.2016 08:34 16,1 C 16,7 C 16,1 C 99 % 15 lf 1012,3 hPa 0,0 l/m 0 min 0 min 78 W/m 8,4 km/h (2 Bft) 95,74 %
04.06.2016 08:36 16,1 C 16,7 C 15,6 C 99 % 15 lf 1012,2 hPa 0,0 l/m 0 min 0 min 69 W/m 8,4 km/h (2 Bft) 95,74 %
04.06.2016 08:38 16,2 C 16,7 C 15,6 C 99 % 15 lf 1012,3 hPa 0,0 l/m 0 min 0 min 70 W/m 6,3 km/h (2 Bft) 95,65 %
04.06.2016 08:40 16,2 C 16,7 C 15,6 C 99 % 15 lf 1012,3 hPa 0,0 l/m 0 min 0 min 74 W/m 10,5 km/h (2 Bft) 93,62 %
04.06.2016 08:42 16,2 C 16,7 C 16,1 C 99 % 15 lf 1012,3 hPa 0,0 l/m 0 min 0 min 90 W/m 10,5 km/h (2 Bft) 93,62 %
04.06.2016 08:44 16,2 C 16,7 C 16,1 C 99 % 15 lf 1012,3 hPa 0,0 l/m 0 min 0 min 93 W/m 8,4 km/h (2 Bft) 97,87 %
04.06.2016 08:46 16,2 C 16,7 C 16,1 C 99 % 15 lf 1012,3 hPa 0,0 l/m 0 min 0 min 96 W/m 8,4 km/h (2 Bft) 95,74 %
04.06.2016 08:48 16,2 C 16,7 C 16,1 C 99 % 15 lf 1012,3 hPa 0,0 l/m 0 min 0 min 102 W/m 12,6 km/h (3 Bft) 93,88 %
04.06.2016 08:50 16,2 C 16,7 C 16,1 C 99 % 15 lf 1012,3 hPa 0,0 l/m 0 min 0 min 92 W/m 10,5 km/h (2 Bft) 95,74 %
04.06.2016 08:52 16,3 C 16,7 C 16,1 C 99 % 15 lf 1012,3 hPa 0,0 l/m 0 min 0 min 81 W/m 8,4 km/h (2 Bft) 91,49 %
04.06.2016 08:54 16,3 C 16,7 C 16,1 C 99 % 15 lf 1012,3 hPa 0,0 l/m 0 min 0 min 89 W/m 6,3 km/h (2 Bft) 91,49 %
04.06.2016 08:56 16,3 C 16,7 C 16,1 C 99 % 15 lf 1012,3 hPa 0,0 l/m 0 min 0 min 88 W/m 8,4 km/h (2 Bft) 95,74 %
04.06.2016 08:58 16,3 C 16,7 C 16,1 C 99 % 15 lf 1012,2 hPa 0,0 l/m 0 min 0 min 80 W/m 8,4 km/h (2 Bft) 91,49 %
04.06.2016 09:00 16,3 C 16,7 C 16,1 C 99 % 15 lf 1012,3 hPa 0,0 l/m 0 min 0 min 87 W/m 6,3 km/h (2 Bft) 91,30 %
04.06.2016 09:02 16,3 C 16,7 C 16,1 C 99 % 15 lf 1012,3 hPa 0,0 l/m 0 min 0 min 101 W/m 8,4 km/h (2 Bft) 97,87 %
04.06.2016 09:04 16,3 C 17,2 C 16,7 C 99 % 15 lf 1012,3 hPa 0,0 l/m 0 min 0 min 136 W/m 8,4 km/h (2 Bft) 95,74 %
04.06.2016 09:06 16,3 C 17,2 C 16,7 C 99 % 15 lf 1012,4 hPa 0,0 l/m 0 min 0 min 154 W/m 8,4 km/h (2 Bft) 95,74 %
04.06.2016 09:08 16,3 C 17,2 C 16,7 C 99 % 15 lf 1012,4 hPa 0,0 l/m 0 min 0 min 139 W/m 6,3 km/h (2 Bft) 95,74 %
04.06.2016 09:10 16,3 C 17,2 C 16,7 C 99 % 15 lf 1012,5 hPa 0,0 l/m 0 min 0 min 111 W/m 8,4 km/h (2 Bft) 97,87 %
04.06.2016 09:12 16,3 C 16,7 C 16,7 C 99 % 15 lf 1012,5 hPa 0,0 l/m 0 min 0 min 103 W/m 10,5 km/h (2 Bft) 100,00 %
04.06.2016 09:14 16,4 C 17,2 C 16,7 C 99 % 15 lf 1012,6 hPa 0,0 l/m 0 min 0 min 106 W/m 8,4 km/h (2 Bft) 95,74 %
04.06.2016 09:16 16,4 C 16,7 C 16,1 C 99 % 15 lf 1012,6 hPa 0,0 l/m 0 min 0 min 97 W/m 8,4 km/h (2 Bft) 95,74 %
04.06.2016 09:18 16,3 C 16,7 C 16,1 C 99 % 15 lf 1012,5 hPa 0,0 l/m 0 min 0 min 88 W/m 10,5 km/h (2 Bft) 97,87 %
04.06.2016 09:20 16,3 C 16,7 C 16,1 C 99 % 15 lf 1012,6 hPa 0,0 l/m 0 min 0 min 92 W/m 10,5 km/h (2 Bft) 97,87 %
04.06.2016 09:22 16,3 C 16,7 C 16,7 C 99 % 15 lf 1012,6 hPa 0,0 l/m 0 min 0 min 107 W/m 8,4 km/h (2 Bft) 95,65 %
04.06.2016 09:24 16,3 C 16,7 C 16,7 C 99 % 15 lf 1012,6 hPa 0,0 l/m 0 min 0 min 122 W/m 10,5 km/h (2 Bft) 93,62 %
04.06.2016 09:26 16,3 C 17,2 C 16,7 C 99 % 15 lf 1012,6 hPa 0,0 l/m 0 min 0 min 129 W/m 8,4 km/h (2 Bft) 95,74 %
04.06.2016 09:28 16,3 C 17,2 C 16,7 C 99 % 15 lf 1012,6 hPa 0,0 l/m 0 min 0 min 130 W/m 6,3 km/h (2 Bft) 97,87 %
04.06.2016 09:30 16,3 C 17,8 C 17,2 C 99 % 15 lf 1012,5 hPa 0,0 l/m 0 min 0 min 132 W/m 6,3 km/h (2 Bft) 95,74 %
04.06.2016 09:32 16,4 C 17,2 C 17,2 C 99 % 15 lf 1012,6 hPa 0,0 l/m 0 min 0 min 142 W/m 8,4 km/h (2 Bft) 97,87 %
04.06.2016 09:34 16,4 C 17,8 C 17,2 C 99 % 15 lf 1012,6 hPa 0,0 l/m 0 min 0 min 153 W/m 4,2 km/h (1 Bft) 97,83 %
04.06.2016 09:36 16,4 C 17,8 C 17,8 C 99 % 15 lf 1012,5 hPa 0,0 l/m 0 min 0 min 165 W/m 8,4 km/h (2 Bft) 95,74 %
04.06.2016 09:38 16,5 C 17,8 C 17,8 C 99 % 15 lf 1012,6 hPa 0,0 l/m 0 min 0 min 175 W/m 8,4 km/h (2 Bft) 97,87 %
04.06.2016 09:40 16,6 C 17,8 C 17,8 C 99 % 15 lf 1012,5 hPa 0,0 l/m 0 min 0 min 179 W/m 10,5 km/h (2 Bft) 97,87 %
04.06.2016 09:42 16,6 C 17,8 C 17,8 C 99 % 15 lf 1012,4 hPa 0,0 l/m 0 min 0 min 185 W/m 6,3 km/h (2 Bft) 97,87 %
04.06.2016 09:44 16,6 C 17,8 C 17,8 C 99 % 15 lf 1012,5 hPa 0,0 l/m 0 min 0 min 167 W/m 6,3 km/h (2 Bft) 97,87 %
04.06.2016 09:46 16,6 C 17,8 C 17,8 C 99 % 15 lf 1012,4 hPa 0,0 l/m 0 min 0 min 157 W/m 8,4 km/h (2 Bft) 97,87 %
04.06.2016 09:48 16,6 C 17,8 C 17,8 C 99 % 12 lf 1012,5 hPa 0,0 l/m 0 min 0 min 183 W/m 10,5 km/h (2 Bft) 97,83 %
04.06.2016 09:50 16,6 C 17,8 C 17,8 C 99 % 10 lf 1012,6 hPa 0,0 l/m 0 min 0 min 201 W/m 12,6 km/h (3 Bft) 95,74 %
04.06.2016 09:52 16,6 C 18,3 C 18,3 C 99 % 4 lf 1012,5 hPa 0,0 l/m 0 min 0 min 241 W/m 8,4 km/h (2 Bft) 100,00 %
04.06.2016 09:54 16,6 C 18,3 C 18,3 C 99 % 3 lf 1012,6 hPa 0,0 l/m 0 min 0 min 229 W/m 12,6 km/h (3 Bft) 100,00 %
04.06.2016 09:56 16,6 C 18,9 C 18,9 C 99 % 3 lf 1012,6 hPa 0,0 l/m 2 min 0 min 326 W/m 12,6 km/h (3 Bft) 100,00 %
04.06.2016 09:58 16,6 C 19,4 C 18,9 C 99 % 2 lf 1012,6 hPa 0,0 l/m 0 min 0 min 282 W/m 8,4 km/h (2 Bft) 97,83 %
04.06.2016 10:00 16,6 C 18,9 C 18,9 C 99 % 2 lf 1012,6 hPa 0,0 l/m 0 min 0 min 233 W/m 8,4 km/h (2 Bft) 95,74 %
04.06.2016 10:02 16,7 C 18,9 C 18,9 C 99 % 2 lf 1012,6 hPa 0,0 l/m 0 min 0 min 208 W/m 8,4 km/h (2 Bft) 97,87 %
04.06.2016 10:04 16,7 C 18,9 C 18,9 C 99 % 2 lf 1012,6 hPa 0,0 l/m 0 min 0 min 177 W/m 12,6 km/h (3 Bft) 97,87 %
04.06.2016 10:06 16,8 C 18,9 C 18,3 C 99 % 1 lf 1012,6 hPa 0,0 l/m 0 min 0 min 170 W/m 14,6 km/h (3 Bft) 93,62 %
04.06.2016 10:08 16,7 C 18,9 C 18,3 C 99 % 1 lf 1012,7 hPa 0,0 l/m 0 min 0 min 169 W/m 10,5 km/h (2 Bft) 100,00 %
04.06.2016 10:10 16,7 C 18,9 C 18,3 C 99 % 1 lf 1012,7 hPa 0,0 l/m 0 min 0 min 166 W/m 10,5 km/h (2 Bft) 100,00 %
04.06.2016 10:12 16,8 C 18,9 C 18,3 C 99 % 0 lf 1012,7 hPa 0,0 l/m 0 min 0 min 178 W/m 8,4 km/h (2 Bft) 97,87 %
04.06.2016 10:14 16,8 C 19,4 C 18,3 C 99 % 0 lf 1012,7 hPa 0,0 l/m 0 min 0 min 192 W/m 8,4 km/h (2 Bft) 100,00 %
04.06.2016 10:16 16,8 C 19,4 C 18,9 C 99 % 0 lf 1012,7 hPa 0,0 l/m 0 min 0 min 235 W/m 10,5 km/h (2 Bft) 97,87 %
04.06.2016 10:18 16,8 C 19,4 C 19,4 C 99 % 0 lf 1012,7 hPa 0,0 l/m 0 min 0 min 283 W/m 8,4 km/h (2 Bft) 100,00 %
04.06.2016 10:20 16,9 C 20,0 C 20,0 C 99 % 0 lf 1012,7 hPa 0,0 l/m 2 min 0 min 331 W/m 8,4 km/h (2 Bft) 100,00 %
04.06.2016 10:22 16,9 C 20,6 C 20,0 C 99 % 0 lf 1012,7 hPa 0,0 l/m 0 min 0 min 278 W/m 12,6 km/h (3 Bft) 97,83 %
04.06.2016 10:24 17,0 C 20,0 C 19,4 C 99 % 0 lf 1012,7 hPa 0,0 l/m 0 min 0 min 229 W/m 10,5 km/h (2 Bft) 93,62 %
04.06.2016 10:26 17,0 C 20,0 C 19,4 C 99 % 0 lf 1012,8 hPa 0,0 l/m 0 min 0 min 239 W/m 12,6 km/h (3 Bft) 93,62 %
04.06.2016 10:28 17,0 C 20,6 C 19,4 C 99 % 0 lf 1012,8 hPa 0,0 l/m 0 min 0 min 292 W/m 8,4 km/h (2 Bft) 97,87 %
04.06.2016 10:30 17,0 C 21,1 C 20,0 C 99 % 0 lf 1012,8 hPa 0,0 l/m 0 min 0 min 322 W/m 6,3 km/h (2 Bft) 97,87 %
04.06.2016 10:32 17,1 C 20,6 C 20,0 C 99 % 0 lf 1012,7 hPa 0,0 l/m 0 min 0 min 296 W/m 8,4 km/h (2 Bft) 95,74 %
04.06.2016 10:34 17,1 C 21,1 C 20,0 C 99 % 0 lf 1012,7 hPa 0,0 l/m 0 min 0 min 291 W/m 8,4 km/h (2 Bft) 97,83 %
04.06.2016 10:36 17,2 C 21,1 C 20,0 C 100 % 0 lf 1012,7 hPa 0,0 l/m 0 min 0 min 280 W/m 4,2 km/h (1 Bft) 97,87 %
04.06.2016 10:38 17,3 C 21,1 C 20,0 C 100 % 0 lf 1012,7 hPa 0,0 l/m 0 min 0 min 252 W/m 8,4 km/h (2 Bft) 95,74 %
04.06.2016 10:40 17,4 C 21,1 C 20,0 C 100 % 0 lf 1012,7 hPa 0,0 l/m 0 min 0 min 228 W/m 10,5 km/h (2 Bft) 95,74 %
04.06.2016 10:42 17,4 C 20,6 C 20,0 C 99 % 0 lf 1012,8 hPa 0,0 l/m 0 min 0 min 233 W/m 8,4 km/h (2 Bft) 95,74 %
04.06.2016 10:44 17,4 C 21,1 C 20,0 C 99 % 0 lf 1012,8 hPa 0,0 l/m 0 min 0 min 268 W/m 8,4 km/h (2 Bft) 95,74 %
04.06.2016 10:46 17,5 C 21,1 C 20,0 C 99 % 0 lf 1012,8 hPa 0,0 l/m 0 min 0 min 322 W/m 6,3 km/h (2 Bft) 97,83 %
04.06.2016 10:48 17,5 C 21,1 C 20,6 C 99 % 0 lf 1012,8 hPa 0,0 l/m 0 min 0 min 336 W/m 12,6 km/h (3 Bft) 97,87 %
04.06.2016 10:50 17,5 C 21,1 C 20,6 C 99 % 0 lf 1012,8 hPa 0,0 l/m 0 min 0 min 305 W/m 10,5 km/h (2 Bft) 93,62 %
04.06.2016 10:52 17,6 C 21,7 C 20,6 C 99 % 0 lf 1012,8 hPa 0,0 l/m 0 min 0 min 306 W/m 10,5 km/h (2 Bft) 97,87 %
04.06.2016 10:54 17,5 C 21,7 C 20,6 C 100 % 0 lf 1012,8 hPa 0,0 l/m 0 min 0 min 338 W/m 8,4 km/h (2 Bft) 97,87 %
04.06.2016 10:56 17,6 C 23,3 C 21,1 C 100 % 0 lf 1012,8 hPa 0,0 l/m 2 min 0 min 463 W/m 6,3 km/h (2 Bft) 95,65 %
04.06.2016 10:58 17,6 C 24,4 C 22,2 C 100 % 0 lf 1012,8 hPa 0,0 l/m 2 min 0 min 490 W/m 12,6 km/h (3 Bft) 95,74 %
04.06.2016 11:00 17,7 C 23,9 C 22,2 C 100 % 0 lf 1012,8 hPa 0,0 l/m 2 min 0 min 427 W/m 12,6 km/h (3 Bft) 93,62 %
04.06.2016 11:02 17,8 C 23,9 C 22,2 C 99 % 0 lf 1012,8 hPa 0,0 l/m 2 min 0 min 424 W/m 10,5 km/h (2 Bft) 93,62 %
04.06.2016 11:04 17,8 C 23,3 C 21,7 C 99 % 0 lf 1012,8 hPa 0,0 l/m 2 min 0 min 375 W/m 10,5 km/h (2 Bft) 97,87 %
04.06.2016 11:06 17,9 C 23,3 C 21,7 C 99 % 0 lf 1012,8 hPa 0,0 l/m 0 min 0 min 331 W/m 10,5 km/h (2 Bft) 97,87 %
04.06.2016 11:08 17,9 C 23,3 C 21,7 C 100 % 0 lf 1012,8 hPa 0,0 l/m 0 min 0 min 343 W/m 6,3 km/h (2 Bft) 86,96 %
04.06.2016 11:10 18,0 C 23,3 C 21,1 C 100 % 0 lf 1012,8 hPa 0,0 l/m 0 min 0 min 280 W/m 6,3 km/h (2 Bft) 93,62 %
04.06.2016 11:12 18,1 C 22,8 C 21,1 C 100 % 0 lf 1012,8 hPa 0,0 l/m 0 min 0 min 293 W/m 8,4 km/h (2 Bft) 91,49 %
04.06.2016 11:14 18,1 C 24,4 C 22,2 C 100 % 0 lf 1012,8 hPa 0,0 l/m 0 min 0 min 306 W/m 10,5 km/h (2 Bft) 95,83 %
04.06.2016 11:16 18,1 C 25,0 C 22,8 C 99 % 0 lf 1012,9 hPa 0,0 l/m 2 min 0 min 435 W/m 8,4 km/h (2 Bft) 93,62 %
04.06.2016 11:18 18,1 C 26,7 C 23,3 C 99 % 0 lf 1012,8 hPa 0,0 l/m 2 min 0 min 496 W/m 10,5 km/h (2 Bft) 89,36 %
04.06.2016 11:20 18,2 C 26,7 C 23,3 C 99 % 0 lf 1012,9 hPa 0,0 l/m 2 min 0 min 473 W/m 8,4 km/h (2 Bft) 91,30 %
04.06.2016 11:22 18,3 C 26,1 C 23,9 C 100 % 0 lf 1012,9 hPa 0,0 l/m 2 min 0 min 446 W/m 10,5 km/h (2 Bft) 93,62 %
04.06.2016 11:24 18,3 C 25,6 C 23,3 C 100 % 0 lf 1012,9 hPa 0,0 l/m 2 min 0 min 445 W/m 4,2 km/h (1 Bft) 89,36 %
04.06.2016 11:26 18,4 C 25,0 C 23,3 C 100 % 0 lf 1012,9 hPa 0,0 l/m 2 min 0 min 424 W/m 12,6 km/h (3 Bft) 91,49 %
04.06.2016 11:28 18,5 C 25,0 C 22,8 C 99 % 0 lf 1012,9 hPa 0,0 l/m 0 min 0 min 367 W/m 10,5 km/h (2 Bft) 89,36 %
04.06.2016 11:30 18,6 C 24,4 C 22,8 C 99 % 0 lf 1012,9 hPa 0,0 l/m 2 min 0 min 478 W/m 10,5 km/h (2 Bft) 93,62 %
04.06.2016 11:32 18,7 C 26,7 C 24,4 C 100 % 0 lf 1012,9 hPa 0,0 l/m 2 min 0 min 536 W/m 10,5 km/h (2 Bft) 91,30 %
04.06.2016 11:34 18,8 C 28,3 C 25,0 C 99 % 0 lf 1012,9 hPa 0,0 l/m 2 min 0 min 666 W/m 8,4 km/h (2 Bft) 93,62 %
04.06.2016 11:36 18,9 C 29,4 C 25,6 C 99 % 0 lf 1012,9 hPa 0,0 l/m 2 min 0 min 942 W/m 10,5 km/h (2 Bft) 87,23 %
04.06.2016 11:38 19,1 C 30,6 C 25,6 C 100 % 0 lf 1012,9 hPa 0,0 l/m 2 min 0 min 868 W/m 10,5 km/h (2 Bft) 93,62 %
04.06.2016 11:40 19,2 C 30,6 C 25,6 C 99 % 0 lf 1012,8 hPa 0,0 l/m 2 min 0 min 813 W/m 8,4 km/h (2 Bft) 89,36 %
04.06.2016 11:42 19,3 C 31,7 C 26,1 C 99 % 0 lf 1012,9 hPa 0,0 l/m 2 min 0 min 813 W/m 8,4 km/h (2 Bft) 93,62 %
04.06.2016 11:44 19,4 C 31,7 C 27,2 C 99 % 0 lf 1012,8 hPa 0,0 l/m 2 min 0 min 949 W/m 8,4 km/h (2 Bft) 93,48 %
04.06.2016 11:46 19,6 C 31,1 C 27,2 C 99 % 0 lf 1012,8 hPa 0,0 l/m 2 min 0 min 972 W/m 12,6 km/h (3 Bft) 95,74 %
04.06.2016 11:48 19,7 C 30,0 C 26,1 C 99 % 0 lf 1012,8 hPa 0,0 l/m 2 min 0 min 466 W/m 10,5 km/h (2 Bft) 91,49 %
04.06.2016 11:50 19,7 C 30,6 C 26,7 C 99 % 0 lf 1012,9 hPa 0,0 l/m 2 min 0 min 667 W/m 12,6 km/h (3 Bft) 89,36 %
04.06.2016 11:52 19,8 C 31,7 C 27,8 C 99 % 0 lf 1012,9 hPa 0,0 l/m 2 min 0 min 827 W/m 8,4 km/h (2 Bft) 95,74 %
04.06.2016 11:54 19,9 C 31,7 C 28,3 C 98 % 0 lf 1012,9 hPa 0,0 l/m 2 min 0 min 851 W/m 16,7 km/h (3 Bft) 97,87 %
04.06.2016 11:56 20,1 C 32,8 C 28,9 C 98 % 0 lf 1012,8 hPa 0,0 l/m 2 min 0 min 888 W/m 12,6 km/h (3 Bft) 93,48 %
04.06.2016 11:58 20,3 C 33,3 C 28,3 C 98 % 0 lf 1012,9 hPa 0,0 l/m 2 min 0 min 907 W/m 10,5 km/h (2 Bft) 97,87 %
04.06.2016 12:00 20,4 C 32,8 C 28,3 C 98 % 0 lf 1012,8 hPa 0,0 l/m 2 min 0 min 521 W/m 12,6 km/h (3 Bft) 97,87 %
04.06.2016 12:02 20,5 C 33,3 C 28,3 C 97 % 0 lf 1012,8 hPa 0,0 l/m 2 min 0 min 510 W/m 8,4 km/h (2 Bft) 95,74 %
04.06.2016 12:04 20,6 C 32,2 C 27,8 C 96 % 0 lf 1012,8 hPa 0,0 l/m 2 min 0 min 510 W/m 10,5 km/h (2 Bft) 93,62 %
04.06.2016 12:06 20,6 C 31,1 C 27,2 C 96 % 0 lf 1012,8 hPa 0,0 l/m 2 min 0 min 836 W/m 10,5 km/h (2 Bft) 97,87 %
04.06.2016 12:08 20,7 C 30,0 C 25,6 C 95 % 0 lf 1012,9 hPa 0,0 l/m 2 min 0 min 578 W/m 16,7 km/h (3 Bft) 93,48 %
04.06.2016 12:10 20,8 C 29,4 C 25,6 C 94 % 0 lf 1012,9 hPa 0,0 l/m 2 min 0 min 413 W/m 12,6 km/h (3 Bft) 97,87 %
04.06.2016 12:12 20,9 C 28,9 C 25,0 C 93 % 0 lf 1012,8 hPa 0,0 l/m 0 min 0 min 406 W/m 16,7 km/h (3 Bft) 97,87 %
04.06.2016 12:14 20,9 C 27,8 C 23,9 C 92 % 0 lf 1012,8 hPa 0,0 l/m 0 min 0 min 346 W/m 14,6 km/h (3 Bft) 100,00 %
04.06.2016 12:16 20,9 C 28,3 C 24,4 C 91 % 0 lf 1012,8 hPa 0,0 l/m 2 min 0 min 433 W/m 16,7 km/h (3 Bft) 97,87 %
04.06.2016 12:18 21,0 C 30,0 C 25,6 C 91 % 0 lf 1012,8 hPa 0,0 l/m 2 min 0 min 425 W/m 10,5 km/h (2 Bft) 100,00 %
04.06.2016 12:20 21,2 C 31,7 C 27,8 C 91 % 0 lf 1012,8 hPa 0,0 l/m 2 min 0 min 777 W/m 10,5 km/h (2 Bft) 100,00 %
04.06.2016 12:22 21,3 C 32,8 C 28,3 C 91 % 0 lf 1012,8 hPa 0,0 l/m 2 min 0 min 940 W/m 12,6 km/h (3 Bft) 100,00 %
04.06.2016 12:24 21,3 C 32,8 C 28,9 C 90 % 0 lf 1012,9 hPa 0,0 l/m 2 min 0 min 936 W/m 10,5 km/h (2 Bft) 97,87 %
04.06.2016 12:26 21,4 C 32,8 C 28,9 C 89 % 0 lf 1012,9 hPa 0,0 l/m 2 min 0 min 936 W/m 8,4 km/h (2 Bft) 100,00 %
04.06.2016 12:28 21,6 C 32,2 C 28,9 C 89 % 0 lf 1012,8 hPa 0,0 l/m 2 min 0 min 907 W/m 16,7 km/h (3 Bft) 100,00 %
04.06.2016 12:30 21,7 C 32,8 C 28,9 C 88 % 0 lf 1012,8 hPa 0,0 l/m 2 min 0 min 925 W/m 12,6 km/h (3 Bft) 100,00 %
04.06.2016 12:32 21,8 C 32,8 C 29,4 C 88 % 0 lf 1012,8 hPa 0,0 l/m 2 min 0 min 942 W/m 12,6 km/h (3 Bft) 100,00 %
04.06.2016 12:34 22,0 C 33,3 C 28,9 C 87 % 0 lf 1012,8 hPa 0,0 l/m 2 min 0 min 852 W/m 14,6 km/h (3 Bft) 100,00 %
04.06.2016 12:36 22,1 C 32,8 C 28,9 C 86 % 0 lf 1012,8 hPa 0,0 l/m 2 min 0 min 872 W/m 10,5 km/h (2 Bft) 97,87 %
04.06.2016 12:38 22,1 C 30,6 C 28,3 C 86 % 0 lf 1012,8 hPa 0,0 l/m 2 min 0 min 649 W/m 12,6 km/h (3 Bft) 95,74 %
04.06.2016 12:40 22,2 C 30,6 C 28,3 C 86 % 0 lf 1012,9 hPa 0,0 l/m 2 min 0 min 575 W/m 10,5 km/h (2 Bft) 97,87 %
04.06.2016 12:42 22,3 C 31,1 C 27,8 C 86 % 0 lf 1012,9 hPa 0,0 l/m 2 min 0 min 596 W/m 14,6 km/h (3 Bft) 100,00 %
04.06.2016 12:44 22,4 C 31,1 C 27,8 C 86 % 0 lf 1012,9 hPa 0,0 l/m 2 min 0 min 703 W/m 14,6 km/h (3 Bft) 100,00 %
04.06.2016 12:46 22,5 C 30,6 C 28,3 C 85 % 0 lf 1012,9 hPa 0,0 l/m 2 min 0 min 880 W/m 14,6 km/h (3 Bft) 97,87 %
04.06.2016 12:48 22,6 C 31,7 C 28,3 C 85 % 0 lf 1012,8 hPa 0,0 l/m 2 min 0 min 925 W/m 16,7 km/h (3 Bft) 100,00 %
04.06.2016 12:50 22,7 C 32,2 C 28,9 C 85 % 0 lf 1012,8 hPa 0,0 l/m 2 min 0 min 925 W/m 18,8 km/h (3 Bft) 100,00 %
04.06.2016 12:52 22,8 C 32,2 C 28,9 C 84 % 0 lf 1012,9 hPa 0,0 l/m 2 min 0 min 1021 W/m 16,7 km/h (3 Bft) 100,00 %
04.06.2016 12:54 22,8 C 32,8 C 28,9 C 84 % 0 lf 1012,8 hPa 0,0 l/m 2 min 0 min 1039 W/m 18,8 km/h (3 Bft) 97,83 %
04.06.2016 12:56 22,9 C 33,3 C 29,4 C 83 % 0 lf 1012,8 hPa 0,0 l/m 2 min 0 min 1039 W/m 18,8 km/h (3 Bft) 100,00 %
04.06.2016 12:58 22,9 C 33,3 C 28,9 C 82 % 0 lf 1012,8 hPa 0,0 l/m 2 min 0 min 949 W/m 16,7 km/h (3 Bft) 93,62 %
04.06.2016 13:00 23,0 C 33,3 C 28,9 C 82 % 0 lf 1012,8 hPa 0,0 l/m 2 min 0 min 838 W/m 14,6 km/h (3 Bft) 100,00 %
04.06.2016 13:02 23,1 C 32,8 C 28,9 C 82 % 0 lf 1012,8 hPa 0,0 l/m 2 min 0 min 824 W/m 8,4 km/h (2 Bft) 100,00 %
04.06.2016 13:04 23,2 C 32,8 C 28,9 C 83 % 0 lf 1012,6 hPa 0,0 l/m 2 min 0 min 810 W/m 12,6 km/h (3 Bft) 100,00 %
04.06.2016 13:06 23,3 C 32,2 C 27,8 C 83 % 0 lf 1012,6 hPa 0,0 l/m 2 min 0 min 816 W/m 14,6 km/h (3 Bft) 100,00 %
04.06.2016 13:08 23,3 C 33,3 C 27,8 C 82 % 0 lf 1012,6 hPa 0,0 l/m 2 min 0 min 912 W/m 14,6 km/h (3 Bft) 100,00 %
04.06.2016 13:10 23,3 C 31,1 C 26,1 C 82 % 0 lf 1012,6 hPa 0,0 l/m 2 min 0 min 638 W/m 10,5 km/h (2 Bft) 100,00 %
04.06.2016 13:12 23,4 C 28,9 C 25,6 C 81 % 0 lf 1012,5 hPa 0,0 l/m 0 min 0 min 306 W/m 8,4 km/h (2 Bft) 97,87 %
04.06.2016 13:14 23,4 C 27,8 C 25,0 C 81 % 0 lf 1012,5 hPa 0,0 l/m 0 min 0 min 294 W/m 16,7 km/h (3 Bft) 97,87 %
04.06.2016 13:16 23,3 C 26,7 C 24,4 C 80 % 0 lf 1012,5 hPa 0,0 l/m 0 min 0 min 297 W/m 14,6 km/h (3 Bft) 97,87 %
04.06.2016 13:18 23,3 C 26,1 C 23,9 C 80 % 0 lf 1012,5 hPa 0,0 l/m 0 min 0 min 311 W/m 10,5 km/h (2 Bft) 95,65 %
04.06.2016 13:20 23,3 C 27,2 C 23,9 C 81 % 0 lf 1012,5 hPa 0,0 l/m 0 min 0 min 324 W/m 8,4 km/h (2 Bft) 100,00 %
04.06.2016 13:22 23,3 C 27,2 C 24,4 C 81 % 0 lf 1012,4 hPa 0,0 l/m 0 min 0 min 324 W/m 10,5 km/h (2 Bft) 100,00 %
04.06.2016 13:24 23,3 C 27,8 C 24,4 C 81 % 0 lf 1012,5 hPa 0,0 l/m 0 min 0 min 417 W/m 16,7 km/h (3 Bft) 100,00 %
04.06.2016 13:26 23,3 C 28,9 C 24,4 C 82 % 0 lf 1012,4 hPa 0,0 l/m 2 min 0 min 441 W/m 8,4 km/h (2 Bft) 95,74 %
04.06.2016 13:28 23,3 C 30,6 C 25,0 C 83 % 0 lf 1012,5 hPa 0,0 l/m 2 min 0 min 910 W/m 10,5 km/h (2 Bft) 97,83 %
04.06.2016 13:30 23,4 C 31,7 C 25,6 C 83 % 0 lf 1012,4 hPa 0,0 l/m 2 min 0 min 927 W/m 14,6 km/h (3 Bft) 95,74 %
04.06.2016 13:32 23,4 C 32,2 C 25,6 C 82 % 0 lf 1012,4 hPa 0,0 l/m 2 min 0 min 912 W/m 14,6 km/h (3 Bft) 95,74 %
04.06.2016 13:34 23,5 C 32,8 C 25,6 C 82 % 0 lf 1012,3 hPa 0,0 l/m 2 min 0 min 914 W/m 16,7 km/h (3 Bft) 95,74 %
04.06.2016 13:36 23,6 C 33,9 C 26,1 C 81 % 0 lf 1012,3 hPa 0,0 l/m 2 min 0 min 932 W/m 14,6 km/h (3 Bft) 91,49 %
04.06.2016 13:38 23,7 C 33,9 C 26,1 C 82 % 0 lf 1012,4 hPa 0,0 l/m 2 min 0 min 927 W/m 8,4 km/h (2 Bft) 95,74 %
04.06.2016 13:40 23,8 C 33,9 C 26,1 C 82 % 0 lf 1012,3 hPa 0,0 l/m 2 min 0 min 950 W/m 16,7 km/h (3 Bft) 95,65 %
04.06.2016 13:42 23,9 C 32,2 C 26,7 C 81 % 0 lf 1012,3 hPa 0,0 l/m 2 min 0 min 936 W/m 14,6 km/h (3 Bft) 95,74 %
04.06.2016 13:44 24,0 C 33,3 C 26,7 C 81 % 0 lf 1012,3 hPa 0,0 l/m 2 min 0 min 972 W/m 20,9 km/h (4 Bft) 93,62 %
04.06.2016 13:46 24,1 C 32,2 C 26,7 C 80 % 0 lf 1012,3 hPa 0,0 l/m 2 min 0 min 903 W/m 14,6 km/h (3 Bft) 91,49 %
04.06.2016 13:48 24,2 C 32,2 C 26,1 C 80 % 0 lf 1012,3 hPa 0,0 l/m 2 min 0 min 468 W/m 14,6 km/h (3 Bft) 91,49 %
04.06.2016 13:50 24,2 C 32,2 C 26,7 C 78 % 0 lf 1012,3 hPa 0,0 l/m 2 min 0 min 661 W/m 18,8 km/h (3 Bft) 93,62 %
04.06.2016 13:52 24,2 C 32,8 C 27,2 C 78 % 0 lf 1012,3 hPa 0,0 l/m 2 min 0 min 869 W/m 20,9 km/h (4 Bft) 93,48 %
04.06.2016 13:54 24,3 C 33,3 C 27,2 C 79 % 0 lf 1012,2 hPa 0,0 l/m 2 min 0 min 1060 W/m 18,8 km/h (3 Bft) 93,62 %
04.06.2016 13:56 24,4 C 34,4 C 28,3 C 79 % 0 lf 1012,2 hPa 0,0 l/m 2 min 0 min 1049 W/m 12,6 km/h (3 Bft) 93,62 %
04.06.2016 13:58 24,5 C 32,2 C 27,8 C 79 % 0 lf 1012,2 hPa 0,0 l/m 2 min 0 min 949 W/m 16,7 km/h (3 Bft) 93,62 %
04.06.2016 14:00 24,6 C 31,1 C 27,2 C 79 % 0 lf 1012,2 hPa 0,0 l/m 2 min 0 min 482 W/m 14,6 km/h (3 Bft) 91,49 %
04.06.2016 14:02 24,6 C 30,0 C 27,2 C 78 % 0 lf 1012,2 hPa 0,0 l/m 2 min 0 min 430 W/m 18,8 km/h (3 Bft) 95,74 %
04.06.2016 14:04 24,6 C 30,0 C 26,7 C 77 % 0 lf 1012,2 hPa 0,0 l/m 2 min 0 min 465 W/m 18,8 km/h (3 Bft) 95,65 %
04.06.2016 14:06 24,6 C 30,6 C 27,8 C 77 % 0 lf 1012,2 hPa 0,0 l/m 2 min 0 min 599 W/m 16,7 km/h (3 Bft) 91,49 %
04.06.2016 14:08 24,6 C 30,6 C 28,3 C 77 % 0 lf 1012,1 hPa 0,0 l/m 2 min 0 min 747 W/m 16,7 km/h (3 Bft) 93,62 %
04.06.2016 14:10 24,6 C 29,4 C 27,8 C 78 % 0 lf 1012,0 hPa 0,0 l/m 2 min 0 min 904 W/m 18,8 km/h (3 Bft) 95,74 %
04.06.2016 14:12 24,5 C 27,2 C 26,1 C 76 % 0 lf 1012,0 hPa 0,0 l/m 2 min 0 min 426 W/m 25,1 km/h (4 Bft) 95,74 %
04.06.2016 14:14 24,4 C 26,1 C 25,6 C 76 % 0 lf 1012,0 hPa 0,0 l/m 0 min 0 min 218 W/m 12,6 km/h (3 Bft) 93,62 %
04.06.2016 14:16 24,3 C 25,6 C 24,4 C 77 % 0 lf 1012,0 hPa 0,0 l/m 0 min 0 min 198 W/m 10,5 km/h (2 Bft) 93,48 %
04.06.2016 14:18 24,2 C 25,0 C 23,9 C 77 % 0 lf 1012,1 hPa 0,0 l/m 0 min 0 min 160 W/m 12,6 km/h (3 Bft) 93,62 %
04.06.2016 14:20 24,1 C 24,4 C 23,3 C 77 % 0 lf 1012,2 hPa 0,2 l/m 0 min 0 min 169 W/m 14,6 km/h (3 Bft) 93,62 %
04.06.2016 14:22 24,0 C 23,9 C 23,3 C 77 % 0 lf 1012,1 hPa 0,0 l/m 0 min 0 min 195 W/m 10,5 km/h (2 Bft) 89,36 %
04.06.2016 14:24 23,9 C 24,4 C 23,3 C 77 % 0 lf 1012,2 hPa 0,0 l/m 0 min 0 min 172 W/m 8,4 km/h (2 Bft) 97,30 %
04.06.2016 14:26 23,8 C 23,9 C 23,3 C 77 % 0 lf 1012,1 hPa 0,0 l/m 0 min 0 min 197 W/m 10,5 km/h (2 Bft) 95,74 %
04.06.2016 14:28 23,8 C 24,4 C 23,3 C 78 % 0 lf 1012,1 hPa 0,0 l/m 0 min 0 min 204 W/m 14,6 km/h (3 Bft) 91,49 %
04.06.2016 14:30 23,7 C 24,4 C 23,3 C 78 % 0 lf 1012,2 hPa 0,0 l/m 0 min 0 min 180 W/m 12,6 km/h (3 Bft) 95,65 %
04.06.2016 14:32 23,6 C 24,4 C 23,3 C 78 % 0 lf 1012,1 hPa 0,0 l/m 0 min 0 min 215 W/m 8,4 km/h (2 Bft) 97,87 %
04.06.2016 14:34 23,6 C 24,4 C 23,3 C 78 % 0 lf 1012,1 hPa 0,0 l/m 0 min 0 min 234 W/m 10,5 km/h (2 Bft) 100,00 %
04.06.2016 14:36 23,6 C 24,4 C 23,9 C 78 % 0 lf 1012,1 hPa 0,0 l/m 0 min 0 min 312 W/m 8,4 km/h (2 Bft) 100,00 %
04.06.2016 14:38 23,6 C 26,1 C 25,6 C 79 % 0 lf 1012,1 hPa 0,0 l/m 0 min 0 min 322 W/m 12,6 km/h (3 Bft) 93,62 %
04.06.2016 14:40 23,6 C 26,7 C 25,0 C 80 % 0 lf 1012,1 hPa 0,0 l/m 0 min 0 min 301 W/m 12,6 km/h (3 Bft) 95,74 %
04.06.2016 14:42 23,5 C 25,6 C 24,4 C 80 % 0 lf 1012,1 hPa 0,0 l/m 0 min 0 min 233 W/m 14,6 km/h (3 Bft) 97,83 %
04.06.2016 14:44 23,5 C 25,0 C 24,4 C 80 % 0 lf 1012,0 hPa 0,0 l/m 0 min 0 min 286 W/m 14,6 km/h (3 Bft) 97,87 %
04.06.2016 14:46 23,4 C 25,6 C 24,4 C 81 % 0 lf 1012,0 hPa 0,0 l/m 0 min 0 min 344 W/m 12,6 km/h (3 Bft) 95,74 %
04.06.2016 14:48 23,4 C 25,6 C 24,4 C 81 % 0 lf 1012,0 hPa 0,0 l/m 0 min 0 min 402 W/m 20,9 km/h (4 Bft) 96,23 %
04.06.2016 14:50 23,3 C 25,6 C 25,0 C 81 % 0 lf 1012,0 hPa 0,0 l/m 0 min 0 min 380 W/m 18,8 km/h (3 Bft) 95,74 %
04.06.2016 14:52 23,2 C 25,0 C 24,4 C 81 % 0 lf 1012,1 hPa 0,0 l/m 0 min 0 min 258 W/m 16,7 km/h (3 Bft) 93,48 %
04.06.2016 14:54 23,2 C 24,4 C 23,9 C 81 % 0 lf 1012,0 hPa 0,0 l/m 0 min 0 min 263 W/m 16,7 km/h (3 Bft) 97,87 %
04.06.2016 14:56 23,1 C 24,4 C 23,9 C 81 % 0 lf 1012,0 hPa 0,0 l/m 0 min 0 min 219 W/m 14,6 km/h (3 Bft) 89,36 %
04.06.2016 14:58 23,0 C 23,9 C 23,3 C 81 % 0 lf 1012,0 hPa 0,0 l/m 0 min 0 min 168 W/m 20,9 km/h (4 Bft) 97,87 %
04.06.2016 15:00 22,9 C 23,3 C 22,8 C 82 % 0 lf 1011,8 hPa 0,0 l/m 0 min 0 min 153 W/m 18,8 km/h (3 Bft) 97,87 %
04.06.2016 15:02 22,9 C 23,3 C 22,8 C 82 % 0 lf 1011,8 hPa 0,0 l/m 0 min 0 min 152 W/m 16,7 km/h (3 Bft) 93,75 %
04.06.2016 15:04 22,8 C 23,3 C 22,2 C 82 % 0 lf 1011,6 hPa 0,0 l/m 0 min 0 min 169 W/m 23,0 km/h (4 Bft) 97,83 %
04.06.2016 15:06 22,7 C 23,3 C 22,2 C 82 % 0 lf 1011,4 hPa 0,0 l/m 0 min 0 min 153 W/m 20,9 km/h (4 Bft) 98,00 %
04.06.2016 15:08 22,6 C 22,8 C 22,2 C 82 % 0 lf 1011,4 hPa 0,0 l/m 0 min 0 min 133 W/m 23,0 km/h (4 Bft) 97,87 %
04.06.2016 15:10 22,6 C 22,2 C 21,7 C 83 % 0 lf 1011,4 hPa 0,0 l/m 0 min 0 min 127 W/m 23,0 km/h (4 Bft) 97,87 %
04.06.2016 15:12 22,4 C 22,2 C 21,7 C 83 % 0 lf 1011,5 hPa 0,0 l/m 0 min 0 min 105 W/m 27,2 km/h (4 Bft) 95,74 %
04.06.2016 15:14 22,3 C 21,7 C 21,1 C 83 % 0 lf 1011,4 hPa 0,0 l/m 0 min 0 min 77 W/m 33,5 km/h (5 Bft) 95,65 %
04.06.2016 15:16 22,2 C 21,7 C 20,6 C 83 % 0 lf 1011,2 hPa 0,0 l/m 0 min 0 min 65 W/m 35,6 km/h (5 Bft) 97,87 %
04.06.2016 15:18 22,1 C 21,1 C 20,6 C 83 % 0 lf 1011,0 hPa 0,0 l/m 0 min 0 min 52 W/m 35,6 km/h (5 Bft) 97,87 %
04.06.2016 15:20 21,9 C 21,1 C 20,0 C 83 % 0 lf 1011,0 hPa 0,0 l/m 0 min 0 min 30 W/m 29,3 km/h (5 Bft) 97,87 %
04.06.2016 15:22 21,8 C 20,6 C 20,0 C 84 % 0 lf 1011,4 hPa 0,0 l/m 0 min 0 min 18 W/m 23,0 km/h (4 Bft) 95,74 %
04.06.2016 15:24 21,6 C 20,6 C 19,4 C 84 % 0 lf 1011,5 hPa 0,0 l/m 0 min 0 min 17 W/m 20,9 km/h (4 Bft) 93,62 %
04.06.2016 15:26 21,5 C 20,6 C 19,4 C 84 % 0 lf 1011,7 hPa 0,0 l/m 0 min 0 min 26 W/m 23,0 km/h (4 Bft) 95,65 %
04.06.2016 15:28 21,4 C 20,6 C 19,4 C 85 % 0 lf 1011,8 hPa 0,0 l/m 0 min 0 min 38 W/m 23,0 km/h (4 Bft) 97,87 %
04.06.2016 15:30 21,3 C 20,6 C 19,4 C 84 % 0 lf 1011,9 hPa 0,0 l/m 0 min 0 min 49 W/m 12,6 km/h (3 Bft) 97,87 %
04.06.2016 15:32 21,2 C 20,0 C 19,4 C 85 % 4 lf 1012,0 hPa 0,0 l/m 0 min 2 min 53 W/m 29,3 km/h (5 Bft) 97,87 %
04.06.2016 15:34 21,0 C 20,0 C 18,9 C 85 % 2 lf 1011,8 hPa 0,0 l/m 0 min 2 min 62 W/m 33,5 km/h (5 Bft) 91,49 %
04.06.2016 15:36 20,9 C 20,0 C 18,9 C 85 % 0 lf 1011,9 hPa 0,0 l/m 0 min 0 min 81 W/m 25,1 km/h (4 Bft) 93,75 %
04.06.2016 15:38 20,7 C 20,0 C 18,9 C 86 % 0 lf 1011,8 hPa 0,0 l/m 0 min 0 min 102 W/m 18,8 km/h (3 Bft) 97,87 %
04.06.2016 15:40 20,7 C 20,6 C 18,9 C 86 % 0 lf 1011,8 hPa 0,0 l/m 0 min 0 min 126 W/m 6,3 km/h (2 Bft) 95,74 %
04.06.2016 15:42 20,6 C 21,1 C 19,4 C 87 % 0 lf 1011,8 hPa 0,0 l/m 0 min 0 min 167 W/m 10,5 km/h (2 Bft) 97,87 %
04.06.2016 15:44 20,6 C 21,7 C 20,0 C 87 % 0 lf 1011,9 hPa 0,0 l/m 0 min 0 min 219 W/m 4,2 km/h (1 Bft) 97,87 %
04.06.2016 15:46 20,6 C 21,7 C 20,0 C 87 % 0 lf 1012,0 hPa 0,0 l/m 0 min 0 min 229 W/m 14,6 km/h (3 Bft) 97,87 %
04.06.2016 15:48 20,6 C 21,7 C 20,6 C 88 % 0 lf 1012,0 hPa 0,0 l/m 0 min 0 min 216 W/m 12,6 km/h (3 Bft) 97,87 %
04.06.2016 15:50 20,5 C 22,2 C 20,6 C 88 % 0 lf 1012,1 hPa 0,0 l/m 0 min 0 min 194 W/m 10,5 km/h (2 Bft) 97,83 %
04.06.2016 15:52 20,5 C 22,2 C 21,1 C 87 % 0 lf 1012,2 hPa 0,0 l/m 0 min 0 min 186 W/m 8,4 km/h (2 Bft) 97,87 %
04.06.2016 15:54 20,5 C 22,8 C 21,1 C 87 % 0 lf 1012,1 hPa 0,0 l/m 0 min 0 min 190 W/m 10,5 km/h (2 Bft) 95,74 %
04.06.2016 15:56 20,5 C 22,2 C 21,1 C 88 % 0 lf 1012,1 hPa 0,0 l/m 0 min 0 min 191 W/m 10,5 km/h (2 Bft) 97,87 %
04.06.2016 15:58 20,5 C 22,2 C 21,1 C 88 % 0 lf 1012,0 hPa 0,0 l/m 0 min 0 min 188 W/m 10,5 km/h (2 Bft) 97,87 %
04.06.2016 16:00 20,5 C 22,2 C 21,1 C 87 % 0 lf 1011,8 hPa 0,0 l/m 0 min 0 min 186 W/m 10,5 km/h (2 Bft) 95,65 %
04.06.2016 16:02 20,5 C 22,2 C 21,1 C 88 % 0 lf 1011,8 hPa 0,0 l/m 0 min 0 min 175 W/m 14,6 km/h (3 Bft) 94,44 %
04.06.2016 16:04 20,5 C 22,2 C 21,1 C 87 % 0 lf 1011,9 hPa 0,0 l/m 0 min 0 min 165 W/m 20,9 km/h (4 Bft) 93,48 %
04.06.2016 16:06 20,5 C 21,7 C 21,1 C 87 % 0 lf 1011,8 hPa 0,0 l/m 0 min 0 min 156 W/m 18,8 km/h (3 Bft) 97,87 %
04.06.2016 16:08 20,5 C 21,1 C 20,6 C 87 % 0 lf 1011,8 hPa 0,0 l/m 0 min 0 min 148 W/m 16,7 km/h (3 Bft) 97,87 %
04.06.2016 16:10 20,4 C 21,1 C 20,6 C 86 % 0 lf 1011,7 hPa 0,0 l/m 0 min 0 min 141 W/m 14,6 km/h (3 Bft) 97,87 %
04.06.2016 16:12 20,5 C 21,1 C 20,6 C 86 % 0 lf 1011,8 hPa 0,0 l/m 0 min 0 min 135 W/m 14,6 km/h (3 Bft) 97,87 %
04.06.2016 16:14 20,4 C 21,1 C 20,0 C 86 % 0 lf 1011,7 hPa 0,0 l/m 0 min 0 min 134 W/m 23,0 km/h (4 Bft) 97,87 %
04.06.2016 16:16 20,4 C 20,6 C 20,0 C 87 % 0 lf 1011,7 hPa 0,0 l/m 0 min 0 min 128 W/m 14,6 km/h (3 Bft) 93,48 %
04.06.2016 16:18 20,4 C 20,6 C 20,0 C 87 % 0 lf 1011,7 hPa 0,0 l/m 0 min 0 min 124 W/m 20,9 km/h (4 Bft) 97,87 %
04.06.2016 16:20 20,4 C 20,6 C 20,0 C 87 % 0 lf 1011,8 hPa 0,0 l/m 0 min 0 min 120 W/m 16,7 km/h (3 Bft) 100,00 %
04.06.2016 16:22 20,4 C 20,6 C 20,0 C 87 % 0 lf 1011,8 hPa 0,0 l/m 0 min 0 min 115 W/m 18,8 km/h (3 Bft) 100,00 %
04.06.2016 16:24 20,4 C 20,6 C 20,0 C 87 % 0 lf 1011,8 hPa 0,0 l/m 0 min 0 min 109 W/m 16,7 km/h (3 Bft) 100,00 %
04.06.2016 16:26 20,3 C 20,6 C 19,4 C 88 % 0 lf 1011,8 hPa 0,0 l/m 0 min 0 min 107 W/m 18,8 km/h (3 Bft) 97,83 %
04.06.2016 16:28 20,3 C 20,6 C 19,4 C 88 % 0 lf 1011,8 hPa 0,0 l/m 0 min 0 min 111 W/m 16,7 km/h (3 Bft) 97,87 %
04.06.2016 16:30 20,3 C 20,6 C 19,4 C 88 % 0 lf 1011,8 hPa 0,0 l/m 0 min 0 min 135 W/m 14,6 km/h (3 Bft) 97,87 %
04.06.2016 16:32 20,3 C 20,6 C 20,0 C 88 % 0 lf 1011,7 hPa 0,0 l/m 0 min 0 min 172 W/m 18,8 km/h (3 Bft) 97,87 %
04.06.2016 16:34 20,3 C 21,1 C 20,6 C 89 % 0 lf 1011,8 hPa 0,0 l/m 0 min 0 min 204 W/m 12,6 km/h (3 Bft) 93,62 %
04.06.2016 16:36 20,3 C 21,1 C 20,6 C 89 % 0 lf 1011,8 hPa 0,0 l/m 0 min 0 min 209 W/m 14,6 km/h (3 Bft) 94,55 %
04.06.2016 16:38 20,3 C 21,1 C 21,1 C 89 % 0 lf 1011,7 hPa 0,0 l/m 0 min 0 min 205 W/m 12,6 km/h (3 Bft) 93,62 %
04.06.2016 16:40 20,3 C 21,7 C 21,1 C 89 % 0 lf 1011,6 hPa 0,0 l/m 0 min 0 min 210 W/m 14,6 km/h (3 Bft) 95,74 %
04.06.2016 16:42 20,3 C 21,7 C 20,6 C 89 % 0 lf 1011,7 hPa 0,0 l/m 0 min 0 min 160 W/m 18,8 km/h (3 Bft) 97,87 %
04.06.2016 16:44 20,3 C 21,1 C 20,6 C 89 % 0 lf 1011,7 hPa 0,0 l/m 0 min 2 min 135 W/m 8,4 km/h (2 Bft) 97,87 %
04.06.2016 16:46 20,3 C 21,1 C 20,0 C 89 % 9 lf 1011,7 hPa 0,0 l/m 0 min 2 min 125 W/m 14,6 km/h (3 Bft) 93,62 %
04.06.2016 16:48 20,3 C 20,6 C 20,0 C 89 % 15 lf 1011,8 hPa 0,0 l/m 0 min 2 min 121 W/m 12,6 km/h (3 Bft) 97,83 %
04.06.2016 16:50 20,3 C 20,0 C 19,4 C 89 % 15 lf 1011,8 hPa 0,0 l/m 0 min 2 min 126 W/m 16,7 km/h (3 Bft) 97,87 %
04.06.2016 16:52 20,3 C 20,0 C 19,4 C 89 % 15 lf 1011,9 hPa 0,0 l/m 0 min 2 min 137 W/m 14,6 km/h (3 Bft) 100,00 %
04.06.2016 16:54 20,3 C 20,0 C 19,4 C 89 % 15 lf 1011,9 hPa 0,0 l/m 0 min 2 min 148 W/m 12,6 km/h (3 Bft) 93,62 %
04.06.2016 16:56 20,2 C 20,6 C 19,4 C 89 % 14 lf 1011,9 hPa 0,0 l/m 0 min 0 min 159 W/m 18,8 km/h (3 Bft) 93,62 %
04.06.2016 16:58 20,2 C 20,6 C 19,4 C 89 % 10 lf 1011,9 hPa 0,0 l/m 0 min 0 min 166 W/m 18,8 km/h (3 Bft) 91,49 %
04.06.2016 17:00 20,2 C 20,6 C 19,4 C 90 % 3 lf 1012,0 hPa 0,0 l/m 0 min 0 min 160 W/m 20,9 km/h (4 Bft) 93,48 %
04.06.2016 17:02 20,2 C 20,6 C 19,4 C 90 % 0 lf 1012,0 hPa 0,0 l/m 0 min 0 min 180 W/m 18,8 km/h (3 Bft) 95,83 %
04.06.2016 17:04 20,2 C 20,6 C 20,0 C 90 % 0 lf 1012,0 hPa 0,0 l/m 0 min 0 min 155 W/m 20,9 km/h (4 Bft) 95,74 %
04.06.2016 17:06 20,2 C 20,6 C 19,4 C 90 % 0 lf 1012,1 hPa 0,0 l/m 0 min 0 min 128 W/m 18,8 km/h (3 Bft) 93,88 %
04.06.2016 17:08 20,1 C 20,6 C 19,4 C 90 % 0 lf 1012,1 hPa 0,0 l/m 0 min 0 min 119 W/m 23,0 km/h (4 Bft) 95,74 %
04.06.2016 17:10 20,1 C 20,6 C 19,4 C 90 % 0 lf 1012,1 hPa 0,0 l/m 0 min 0 min 118 W/m 16,7 km/h (3 Bft) 91,30 %
04.06.2016 17:12 20,1 C 20,6 C 19,4 C 90 % 0 lf 1012,1 hPa 0,0 l/m 0 min 0 min 121 W/m 18,8 km/h (3 Bft) 95,74 %
04.06.2016 17:14 20,1 C 20,6 C 19,4 C 91 % 0 lf 1012,1 hPa 0,0 l/m 0 min 0 min 126 W/m 16,7 km/h (3 Bft) 97,87 %
04.06.2016 17:16 20,1 C 20,6 C 19,4 C 91 % 0 lf 1012,0 hPa 0,0 l/m 0 min 0 min 129 W/m 20,9 km/h (4 Bft) 97,87 %
04.06.2016 17:18 20,0 C 20,6 C 19,4 C 91 % 0 lf 1012,0 hPa 0,0 l/m 0 min 0 min 144 W/m 14,6 km/h (3 Bft) 97,87 %
04.06.2016 17:20 20,0 C 20,6 C 20,0 C 91 % 0 lf 1012,0 hPa 0,0 l/m 0 min 0 min 174 W/m 12,6 km/h (3 Bft) 97,87 %
04.06.2016 17:22 20,0 C 21,1 C 20,0 C 91 % 0 lf 1012,1 hPa 0,0 l/m 0 min 0 min 211 W/m 23,0 km/h (4 Bft) 97,83 %
04.06.2016 17:24 20,0 C 21,1 C 20,6 C 91 % 0 lf 1012,1 hPa 0,0 l/m 0 min 0 min 252 W/m 20,9 km/h (4 Bft) 97,87 %
04.06.2016 17:26 20,0 C 21,7 C 21,1 C 91 % 0 lf 1012,2 hPa 0,0 l/m 2 min 0 min 306 W/m 16,7 km/h (3 Bft) 95,74 %
04.06.2016 17:28 20,1 C 22,2 C 21,7 C 91 % 0 lf 1012,2 hPa 0,0 l/m 2 min 0 min 324 W/m 14,6 km/h (3 Bft) 95,74 %
04.06.2016 17:30 20,1 C 22,8 C 22,2 C 91 % 0 lf 1012,1 hPa 0,0 l/m 2 min 0 min 379 W/m 12,6 km/h (3 Bft) 91,49 %
04.06.2016 17:32 20,2 C 22,8 C 22,8 C 92 % 0 lf 1012,1 hPa 0,0 l/m 2 min 0 min 408 W/m 18,8 km/h (3 Bft) 97,87 %
04.06.2016 17:34 20,2 C 23,9 C 22,8 C 91 % 0 lf 1012,0 hPa 0,0 l/m 2 min 0 min 548 W/m 18,8 km/h (3 Bft) 97,83 %
04.06.2016 17:36 20,3 C 24,4 C 23,3 C 91 % 0 lf 1012,0 hPa 0,0 l/m 2 min 0 min 684 W/m 18,8 km/h (3 Bft) 93,62 %
04.06.2016 17:38 20,4 C 23,9 C 23,3 C 92 % 0 lf 1012,1 hPa 0,0 l/m 2 min 0 min 645 W/m 14,6 km/h (3 Bft) 93,62 %
04.06.2016 17:40 20,6 C 23,3 C 22,8 C 92 % 0 lf 1012,1 hPa 0,0 l/m 2 min 0 min 622 W/m 14,6 km/h (3 Bft) 91,49 %
04.06.2016 17:42 20,6 C 22,8 C 22,2 C 91 % 0 lf 1011,9 hPa 0,0 l/m 2 min 0 min 341 W/m 16,7 km/h (3 Bft) 95,74 %
04.06.2016 17:44 20,7 C 22,8 C 21,7 C 91 % 0 lf 1011,9 hPa 0,0 l/m 0 min 0 min 185 W/m 16,7 km/h (3 Bft) 93,62 %
04.06.2016 17:46 20,7 C 22,2 C 21,1 C 90 % 0 lf 1012,0 hPa 0,0 l/m 0 min 0 min 168 W/m 18,8 km/h (3 Bft) 93,48 %
04.06.2016 17:48 20,7 C 21,7 C 21,1 C 90 % 0 lf 1011,9 hPa 0,0 l/m 0 min 0 min 160 W/m 12,6 km/h (3 Bft) 97,87 %
04.06.2016 17:50 20,7 C 21,7 C 21,1 C 89 % 0 lf 1011,9 hPa 0,0 l/m 0 min 0 min 200 W/m 18,8 km/h (3 Bft) 95,74 %
04.06.2016 17:52 20,7 C 21,1 C 20,6 C 89 % 0 lf 1012,0 hPa 0,0 l/m 0 min 0 min 153 W/m 18,8 km/h (3 Bft) 95,74 %
04.06.2016 17:54 20,7 C 21,1 C 20,6 C 89 % 0 lf 1012,1 hPa 0,0 l/m 0 min 0 min 125 W/m 10,5 km/h (2 Bft) 91,49 %
04.06.2016 17:56 20,7 C 21,1 C 20,6 C 89 % 0 lf 1012,1 hPa 0,0 l/m 0 min 0 min 110 W/m 12,6 km/h (3 Bft) 93,62 %
04.06.2016 17:58 20,7 C 21,1 C 20,6 C 89 % 0 lf 1012,1 hPa 0,0 l/m 0 min 0 min 101 W/m 12,6 km/h (3 Bft) 91,30 %
04.06.2016 18:00 20,7 C 21,1 C 20,6 C 89 % 0 lf 1012,0 hPa 0,0 l/m 0 min 0 min 110 W/m 12,6 km/h (3 Bft) 95,74 %
04.06.2016 18:02 20,7 C 21,1 C 20,6 C 89 % 0 lf 1012,1 hPa 0,0 l/m 0 min 0 min 127 W/m 12,6 km/h (3 Bft) 93,62 %
04.06.2016 18:04 20,8 C 21,7 C 20,6 C 89 % 0 lf 1012,0 hPa 0,0 l/m 0 min 0 min 132 W/m 12,6 km/h (3 Bft) 91,49 %
04.06.2016 18:06 20,8 C 21,7 C 20,6 C 89 % 0 lf 1011,9 hPa 0,0 l/m 0 min 0 min 138 W/m 12,6 km/h (3 Bft) 94,29 %
04.06.2016 18:08 20,8 C 21,7 C 20,6 C 89 % 0 lf 1012,0 hPa 0,0 l/m 0 min 0 min 153 W/m 12,6 km/h (3 Bft) 95,74 %
04.06.2016 18:10 20,8 C 21,7 C 20,6 C 89 % 0 lf 1012,0 hPa 0,0 l/m 2 min 0 min 324 W/m 10,5 km/h (2 Bft) 95,74 %
04.06.2016 18:12 20,8 C 21,7 C 20,6 C 90 % 0 lf 1011,9 hPa 0,0 l/m 0 min 0 min 236 W/m 8,4 km/h (2 Bft) 95,65 %
04.06.2016 18:14 20,8 C 21,7 C 21,1 C 90 % 0 lf 1011,9 hPa 0,0 l/m 0 min 0 min 210 W/m 12,6 km/h (3 Bft) 97,87 %
04.06.2016 18:16 20,8 C 21,7 C 21,1 C 90 % 0 lf 1011,9 hPa 0,0 l/m 2 min 0 min 239 W/m 12,6 km/h (3 Bft) 97,87 %
04.06.2016 18:18 20,8 C 21,7 C 20,6 C 90 % 0 lf 1011,8 hPa 0,0 l/m 0 min 0 min 211 W/m 14,6 km/h (3 Bft) 95,74 %
04.06.2016 18:20 20,8 C 21,7 C 20,6 C 90 % 0 lf 1011,7 hPa 0,0 l/m 0 min 0 min 184 W/m 12,6 km/h (3 Bft) 89,36 %
04.06.2016 18:22 20,8 C 21,7 C 20,6 C 90 % 0 lf 1011,6 hPa 0,0 l/m 0 min 0 min 213 W/m 12,6 km/h (3 Bft) 97,87 %
04.06.2016 18:24 20,8 C 21,7 C 21,1 C 90 % 0 lf 1011,8 hPa 0,0 l/m 2 min 0 min 283 W/m 14,6 km/h (3 Bft) 95,65 %
04.06.2016 18:26 20,8 C 22,2 C 21,1 C 90 % 0 lf 1011,9 hPa 0,0 l/m 2 min 0 min 486 W/m 14,6 km/h (3 Bft) 97,87 %
04.06.2016 18:28 20,8 C 22,8 C 21,7 C 90 % 0 lf 1011,9 hPa 0,0 l/m 2 min 0 min 521 W/m 14,6 km/h (3 Bft) 95,74 %
04.06.2016 18:30 20,9 C 22,8 C 22,2 C 90 % 0 lf 1011,9 hPa 0,0 l/m 2 min 0 min 515 W/m 10,5 km/h (2 Bft) 97,87 %
04.06.2016 18:32 20,9 C 22,8 C 22,2 C 90 % 0 lf 1012,0 hPa 0,0 l/m 2 min 0 min 494 W/m 12,6 km/h (3 Bft) 95,74 %
04.06.2016 18:34 20,9 C 22,8 C 22,2 C 90 % 0 lf 1012,0 hPa 0,0 l/m 0 min 0 min 199 W/m 10,5 km/h (2 Bft) 98,08 %
04.06.2016 18:36 21,0 C 22,8 C 21,7 C 90 % 0 lf 1012,0 hPa 0,0 l/m 0 min 0 min 158 W/m 16,7 km/h (3 Bft) 94,00 %
04.06.2016 18:38 21,0 C 22,2 C 21,1 C 90 % 0 lf 1012,0 hPa 0,0 l/m 0 min 0 min 143 W/m 16,7 km/h (3 Bft) 97,87 %
04.06.2016 18:40 21,0 C 22,2 C 21,1 C 89 % 0 lf 1012,1 hPa 0,0 l/m 0 min 0 min 133 W/m 12,6 km/h (3 Bft) 95,74 %
04.06.2016 18:42 21,0 C 22,2 C 21,1 C 89 % 0 lf 1012,1 hPa 0,0 l/m 0 min 0 min 120 W/m 12,6 km/h (3 Bft) 95,74 %
04.06.2016 18:44 21,0 C 22,2 C 20,6 C 89 % 0 lf 1012,1 hPa 0,0 l/m 0 min 0 min 107 W/m 10,5 km/h (2 Bft) 97,83 %
04.06.2016 18:46 21,0 C 21,7 C 20,6 C 89 % 0 lf 1012,1 hPa 0,0 l/m 0 min 0 min 93 W/m 14,6 km/h (3 Bft) 95,74 %
04.06.2016 18:48 21,0 C 21,1 C 20,0 C 89 % 0 lf 1012,1 hPa 0,0 l/m 0 min 0 min 76 W/m 10,5 km/h (2 Bft) 100,00 %
04.06.2016 18:50 21,0 C 21,1 C 20,0 C 89 % 0 lf 1012,1 hPa 0,0 l/m 0 min 0 min 64 W/m 10,5 km/h (2 Bft) 97,87 %
04.06.2016 18:52 21,0 C 21,1 C 20,0 C 89 % 0 lf 1012,0 hPa 0,0 l/m 0 min 0 min 54 W/m 8,4 km/h (2 Bft) 97,87 %
04.06.2016 18:54 21,0 C 21,1 C 20,0 C 89 % 0 lf 1012,0 hPa 0,0 l/m 0 min 0 min 53 W/m 8,4 km/h (2 Bft) 97,87 %
04.06.2016 18:56 21,0 C 21,1 C 20,0 C 89 % 0 lf 1012,0 hPa 0,0 l/m 0 min 0 min 52 W/m 8,4 km/h (2 Bft) 97,87 %
04.06.2016 18:58 21,0 C 21,1 C 19,4 C 89 % 0 lf 1012,0 hPa 0,0 l/m 0 min 0 min 50 W/m 8,4 km/h (2 Bft) 100,00 %
04.06.2016 19:00 20,9 C 21,1 C 19,4 C 89 % 0 lf 1012,1 hPa 0,0 l/m 0 min 0 min 47 W/m 8,4 km/h (2 Bft) 100,00 %
04.06.2016 19:02 20,9 C 21,1 C 19,4 C 89 % 0 lf 1012,1 hPa 0,0 l/m 0 min 0 min 46 W/m 4,2 km/h (1 Bft) 95,83 %
04.06.2016 19:04 20,9 C 20,6 C 19,4 C 89 % 0 lf 1012,1 hPa 0,0 l/m 0 min 0 min 41 W/m 4,2 km/h (1 Bft) 97,87 %
04.06.2016 19:06 20,9 C 20,6 C 19,4 C 89 % 0 lf 1012,1 hPa 0,0 l/m 0 min 0 min 40 W/m 4,2 km/h (1 Bft) 95,92 %
04.06.2016 19:08 20,9 C 20,6 C 18,9 C 89 % 0 lf 1012,1 hPa 0,0 l/m 0 min 0 min 40 W/m 6,3 km/h (2 Bft) 97,83 %
04.06.2016 19:10 20,9 C 20,6 C 18,9 C 89 % 0 lf 1012,0 hPa 0,0 l/m 0 min 0 min 41 W/m 8,4 km/h (2 Bft) 95,74 %
04.06.2016 19:12 20,9 C 20,6 C 18,9 C 90 % 0 lf 1012,1 hPa 0,0 l/m 0 min 0 min 45 W/m 8,4 km/h (2 Bft) 95,74 %
04.06.2016 19:14 20,9 C 20,6 C 18,9 C 90 % 0 lf 1012,0 hPa 0,0 l/m 0 min 0 min 46 W/m 6,3 km/h (2 Bft) 95,74 %
04.06.2016 19:16 20,9 C 20,6 C 18,9 C 90 % 0 lf 1012,0 hPa 0,0 l/m 0 min 0 min 45 W/m 6,3 km/h (2 Bft) 97,87 %
04.06.2016 19:18 20,8 C 20,6 C 18,9 C 90 % 0 lf 1012,0 hPa 0,0 l/m 0 min 0 min 46 W/m 8,4 km/h (2 Bft) 95,74 %
04.06.2016 19:20 20,8 C 20,6 C 18,9 C 90 % 0 lf 1012,0 hPa 0,0 l/m 0 min 0 min 49 W/m 8,4 km/h (2 Bft) 97,83 %
04.06.2016 19:22 20,8 C 20,6 C 18,9 C 90 % 0 lf 1012,0 hPa 0,0 l/m 0 min 0 min 53 W/m 6,3 km/h (2 Bft) 95,74 %
04.06.2016 19:24 20,8 C 20,6 C 18,9 C 90 % 0 lf 1012,0 hPa 0,0 l/m 0 min 0 min 55 W/m 6,3 km/h (2 Bft) 95,74 %
04.06.2016 19:26 20,8 C 20,6 C 18,9 C 90 % 0 lf 1012,1 hPa 0,0 l/m 0 min 0 min 58 W/m 4,2 km/h (1 Bft) 93,62 %
04.06.2016 19:28 20,7 C 20,6 C 18,9 C 90 % 0 lf 1012,1 hPa 0,0 l/m 0 min 0 min 63 W/m 6,3 km/h (2 Bft) 93,62 %
04.06.2016 19:30 20,7 C 20,6 C 18,9 C 90 % 0 lf 1012,2 hPa 0,0 l/m 0 min 0 min 64 W/m 6,3 km/h (2 Bft) 97,83 %
04.06.2016 19:32 20,7 C 20,6 C 19,4 C 90 % 0 lf 1012,2 hPa 0,0 l/m 0 min 0 min 63 W/m 6,3 km/h (2 Bft) 95,74 %
04.06.2016 19:34 20,7 C 20,6 C 19,4 C 91 % 0 lf 1012,2 hPa 0,0 l/m 0 min 0 min 60 W/m 8,4 km/h (2 Bft) 95,74 %
04.06.2016 19:36 20,7 C 20,6 C 19,4 C 91 % 0 lf 1012,2 hPa 0,0 l/m 0 min 0 min 56 W/m 8,4 km/h (2 Bft) 91,43 %
04.06.2016 19:38 20,7 C 20,6 C 19,4 C 91 % 0 lf 1012,2 hPa 0,0 l/m 0 min 0 min 54 W/m 10,5 km/h (2 Bft) 95,74 %
04.06.2016 19:40 20,7 C 20,6 C 18,9 C 91 % 0 lf 1012,1 hPa 0,0 l/m 0 min 0 min 50 W/m 6,3 km/h (2 Bft) 95,74 %
04.06.2016 19:42 20,6 C 20,6 C 18,9 C 91 % 0 lf 1012,1 hPa 0,0 l/m 0 min 0 min 43 W/m 8,4 km/h (2 Bft) 95,74 %
04.06.2016 19:44 20,6 C 20,6 C 18,9 C 91 % 0 lf 1012,2 hPa 0,0 l/m 0 min 0 min 40 W/m 8,4 km/h (2 Bft) 95,74 %
04.06.2016 19:46 20,6 C 20,6 C 18,9 C 91 % 0 lf 1012,1 hPa 0,0 l/m 0 min 0 min 40 W/m 6,3 km/h (2 Bft) 93,48 %
04.06.2016 19:48 20,6 C 20,6 C 18,9 C 91 % 0 lf 1012,1 hPa 0,0 l/m 0 min 0 min 40 W/m 8,4 km/h (2 Bft) 95,74 %
04.06.2016 19:50 20,6 C 20,6 C 18,9 C 91 % 0 lf 1012,1 hPa 0,0 l/m 0 min 0 min 42 W/m 6,3 km/h (2 Bft) 95,74 %
04.06.2016 19:52 20,6 C 20,6 C 18,9 C 91 % 0 lf 1012,0 hPa 0,0 l/m 0 min 0 min 42 W/m 8,4 km/h (2 Bft) 97,87 %
04.06.2016 19:54 20,5 C 20,0 C 18,9 C 91 % 0 lf 1012,0 hPa 0,0 l/m 0 min 0 min 42 W/m 10,5 km/h (2 Bft) 97,87 %
04.06.2016 19:56 20,5 C 20,0 C 18,9 C 91 % 0 lf 1012,1 hPa 0,0 l/m 0 min 0 min 44 W/m 10,5 km/h (2 Bft) 95,74 %
04.06.2016 19:58 20,5 C 20,0 C 18,9 C 92 % 0 lf 1012,1 hPa 0,0 l/m 0 min 0 min 43 W/m 14,6 km/h (3 Bft) 97,83 %
04.06.2016 20:00 20,4 C 20,0 C 18,9 C 92 % 0 lf 1012,2 hPa 0,0 l/m 0 min 0 min 42 W/m 6,3 km/h (2 Bft) 95,74 %
04.06.2016 20:02 20,4 C 20,0 C 18,9 C 92 % 0 lf 1012,1 hPa 0,0 l/m 0 min 0 min 42 W/m 12,6 km/h (3 Bft) 93,62 %
04.06.2016 20:04 20,4 C 20,0 C 18,9 C 92 % 0 lf 1012,1 hPa 0,0 l/m 0 min 0 min 42 W/m 6,3 km/h (2 Bft) 97,87 %
04.06.2016 20:06 20,4 C 20,0 C 18,9 C 92 % 0 lf 1012,1 hPa 0,0 l/m 0 min 0 min 40 W/m 8,4 km/h (2 Bft) 98,18 %
04.06.2016 20:08 20,4 C 20,0 C 18,9 C 92 % 0 lf 1012,1 hPa 0,0 l/m 0 min 0 min 40 W/m 8,4 km/h (2 Bft) 97,83 %
04.06.2016 20:10 20,4 C 20,0 C 18,9 C 92 % 0 lf 1012,1 hPa 0,0 l/m 0 min 0 min 39 W/m 10,5 km/h (2 Bft) 97,87 %
04.06.2016 20:12 20,3 C 20,0 C 18,9 C 92 % 0 lf 1012,1 hPa 0,0 l/m 0 min 0 min 35 W/m 12,6 km/h (3 Bft) 95,74 %
04.06.2016 20:14 20,3 C 20,0 C 18,9 C 92 % 0 lf 1012,1 hPa 0,0 l/m 0 min 0 min 32 W/m 8,4 km/h (2 Bft) 95,74 %
04.06.2016 20:16 20,3 C 20,0 C 18,3 C 92 % 0 lf 1012,2 hPa 0,0 l/m 0 min 0 min 31 W/m 8,4 km/h (2 Bft) 93,62 %
04.06.2016 20:18 20,3 C 20,0 C 18,3 C 92 % 0 lf 1012,2 hPa 0,0 l/m 0 min 0 min 30 W/m 8,4 km/h (2 Bft) 95,74 %
04.06.2016 20:20 20,3 C 20,0 C 18,3 C 92 % 0 lf 1012,2 hPa 0,0 l/m 0 min 0 min 30 W/m 8,4 km/h (2 Bft) 95,65 %
04.06.2016 20:22 20,3 C 20,0 C 18,3 C 92 % 0 lf 1012,3 hPa 0,0 l/m 0 min 0 min 27 W/m 6,3 km/h (2 Bft) 97,87 %
04.06.2016 20:24 20,3 C 20,0 C 18,3 C 92 % 0 lf 1012,3 hPa 0,0 l/m 0 min 0 min 26 W/m 4,2 km/h (1 Bft) 97,87 %
04.06.2016 20:26 20,2 C 20,0 C 18,3 C 92 % 0 lf 1012,3 hPa 0,0 l/m 0 min 0 min 25 W/m 8,4 km/h (2 Bft) 97,87 %
04.06.2016 20:28 20,2 C 19,4 C 18,3 C 92 % 0 lf 1012,4 hPa 0,0 l/m 0 min 0 min 25 W/m 6,3 km/h (2 Bft) 93,62 %
04.06.2016 20:30 20,2 C 19,4 C 18,3 C 92 % 0 lf 1012,4 hPa 0,0 l/m 0 min 0 min 25 W/m 6,3 km/h (2 Bft) 97,87 %
04.06.2016 20:32 20,2 C 19,4 C 18,3 C 92 % 0 lf 1012,5 hPa 0,0 l/m 0 min 0 min 23 W/m 6,3 km/h (2 Bft) 97,83 %
04.06.2016 20:34 20,2 C 19,4 C 17,8 C 92 % 0 lf 1012,6 hPa 0,0 l/m 0 min 0 min 23 W/m 4,2 km/h (1 Bft) 95,74 %
04.06.2016 20:36 20,2 C 19,4 C 17,8 C 92 % 0 lf 1012,7 hPa 0,0 l/m 0 min 0 min 24 W/m 4,2 km/h (1 Bft) 96,00 %
04.06.2016 20:38 20,1 C 19,4 C 17,8 C 92 % 0 lf 1012,7 hPa 0,0 l/m 0 min 0 min 25 W/m 2,1 km/h (1 Bft) 97,87 %
04.06.2016 20:40 20,1 C 19,4 C 17,8 C 92 % 0 lf 1012,7 hPa 0,0 l/m 0 min 0 min 25 W/m 2,1 km/h (1 Bft) 95,74 %
04.06.2016 20:42 20,1 C 19,4 C 17,8 C 92 % 0 lf 1012,8 hPa 0,0 l/m 0 min 0 min 25 W/m 4,2 km/h (1 Bft) 93,48 %
04.06.2016 20:44 20,1 C 19,4 C 17,8 C 92 % 0 lf 1012,9 hPa 0,0 l/m 0 min 0 min 25 W/m 2,1 km/h (1 Bft) 95,74 %
04.06.2016 20:46 20,1 C 19,4 C 17,8 C 93 % 0 lf 1012,9 hPa 0,0 l/m 0 min 0 min 24 W/m 4,2 km/h (1 Bft) 97,87 %
04.06.2016 20:48 20,1 C 19,4 C 17,8 C 92 % 0 lf 1012,9 hPa 0,0 l/m 0 min 0 min 22 W/m 2,1 km/h (1 Bft) 97,87 %
04.06.2016 20:50 20,0 C 18,9 C 17,8 C 92 % 0 lf 1012,8 hPa 0,0 l/m 0 min 0 min 18 W/m 2,1 km/h (1 Bft) 95,74 %
04.06.2016 20:52 20,0 C 18,9 C 17,8 C 92 % 0 lf 1012,8 hPa 0,0 l/m 0 min 0 min 15 W/m 4,2 km/h (1 Bft) 95,74 %
04.06.2016 20:54 20,0 C 18,9 C 17,8 C 92 % 0 lf 1012,8 hPa 0,0 l/m 0 min 0 min 14 W/m 2,1 km/h (1 Bft) 95,65 %
04.06.2016 20:56 20,0 C 18,9 C 17,8 C 92 % 0 lf 1012,8 hPa 0,0 l/m 0 min 0 min 14 W/m 6,3 km/h (2 Bft) 95,74 %
04.06.2016 20:58 19,9 C 18,9 C 17,8 C 92 % 0 lf 1012,8 hPa 0,0 l/m 0 min 0 min 14 W/m 4,2 km/h (1 Bft) 95,74 %
04.06.2016 21:00 19,9 C 18,9 C 17,8 C 92 % 0 lf 1012,8 hPa 0,0 l/m 0 min 0 min 14 W/m 2,1 km/h (1 Bft) 95,74 %
04.06.2016 21:02 19,9 C 18,9 C 17,8 C 92 % 0 lf 1012,7 hPa 0,0 l/m 0 min 0 min 14 W/m 4,2 km/h (1 Bft) 93,62 %
04.06.2016 21:04 19,9 C 18,9 C 17,2 C 92 % 0 lf 1012,8 hPa 0,0 l/m 0 min 0 min 14 W/m 6,3 km/h (2 Bft) 95,65 %
04.06.2016 21:06 19,9 C 18,9 C 17,2 C 92 % 0 lf 1012,8 hPa 0,0 l/m 0 min 0 min 13 W/m 2,1 km/h (1 Bft) 95,83 %
04.06.2016 21:08 19,9 C 18,9 C 17,2 C 92 % 0 lf 1012,9 hPa 0,0 l/m 0 min 0 min 12 W/m 2,1 km/h (1 Bft) 93,62 %
04.06.2016 21:10 19,9 C 18,9 C 17,2 C 93 % 1 lf 1012,9 hPa 0,0 l/m 0 min 0 min 12 W/m 4,2 km/h (1 Bft) 93,62 %
04.06.2016 21:12 19,8 C 18,9 C 17,2 C 93 % 1 lf 1013,0 hPa 0,0 l/m 0 min 0 min 11 W/m 2,1 km/h (1 Bft) 97,87 %
04.06.2016 21:14 19,8 C 18,3 C 17,2 C 93 % 1 lf 1013,1 hPa 0,0 l/m 0 min 0 min 11 W/m 0,0 km/h (0 Bft) 95,74 %
04.06.2016 21:16 19,8 C 18,3 C 17,2 C 93 % 1 lf 1013,1 hPa 0,0 l/m 0 min 0 min 9 W/m 0,0 km/h (0 Bft) 97,83 %
04.06.2016 21:18 19,8 C 18,3 C 17,2 C 93 % 1 lf 1013,2 hPa 0,0 l/m 0 min 0 min 9 W/m 0,0 km/h (0 Bft) 95,74 %
04.06.2016 21:20 19,8 C 18,3 C 17,2 C 93 % 1 lf 1013,2 hPa 0,0 l/m 0 min 0 min 9 W/m 0,0 km/h (0 Bft) 93,62 %
04.06.2016 21:22 19,7 C 18,3 C 16,7 C 93 % 1 lf 1013,3 hPa 0,0 l/m 0 min 0 min 7 W/m 0,0 km/h (0 Bft) 97,87 %
04.06.2016 21:24 19,7 C 18,3 C 16,7 C 93 % 1 lf 1013,3 hPa 0,0 l/m 0 min 0 min 7 W/m 0,0 km/h (0 Bft) 97,87 %
04.06.2016 21:26 19,7 C 18,3 C 16,7 C 93 % 1 lf 1013,3 hPa 0,0 l/m 0 min 0 min 7 W/m 0,0 km/h (0 Bft) 95,74 %
04.06.2016 21:28 19,7 C 18,3 C 16,7 C 92 % 1 lf 1013,3 hPa 0,0 l/m 0 min 0 min 7 W/m 0,0 km/h (0 Bft) 89,13 %
04.06.2016 21:30 19,7 C 18,3 C 16,7 C 92 % 1 lf 1013,4 hPa 0,0 l/m 0 min 0 min 7 W/m 0,0 km/h (0 Bft) 95,74 %
04.06.2016 21:32 19,6 C 18,3 C 16,7 C 93 % 1 lf 1013,4 hPa 0,0 l/m 0 min 0 min 7 W/m 0,0 km/h (0 Bft) 95,74 %
04.06.2016 21:34 19,6 C 18,3 C 16,7 C 93 % 1 lf 1013,3 hPa 0,0 l/m 0 min 0 min 5 W/m 2,1 km/h (1 Bft) 95,74 %
04.06.2016 21:36 19,6 C 18,3 C 16,7 C 93 % 2 lf 1013,4 hPa 0,0 l/m 0 min 0 min 5 W/m 4,2 km/h (1 Bft) 97,14 %
04.06.2016 21:38 19,5 C 17,8 C 16,7 C 93 % 2 lf 1013,4 hPa 0,0 l/m 0 min 0 min 5 W/m 4,2 km/h (1 Bft) 95,74 %
04.06.2016 21:40 19,5 C 18,3 C 16,7 C 93 % 2 lf 1013,4 hPa 0,0 l/m 0 min 0 min 5 W/m 6,3 km/h (2 Bft) 97,87 %
04.06.2016 21:42 19,4 C 18,3 C 16,7 C 93 % 2 lf 1013,5 hPa 0,0 l/m 0 min 0 min 5 W/m 8,4 km/h (2 Bft) 95,65 %
04.06.2016 21:44 19,4 C 18,3 C 16,7 C 93 % 2 lf 1013,5 hPa 0,0 l/m 0 min 0 min 5 W/m 6,3 km/h (2 Bft) 95,74 %
04.06.2016 21:46 19,4 C 18,3 C 16,7 C 93 % 2 lf 1013,4 hPa 0,0 l/m 0 min 0 min 5 W/m 8,4 km/h (2 Bft) 93,62 %
04.06.2016 21:48 19,4 C 18,3 C 16,7 C 93 % 2 lf 1013,4 hPa 0,0 l/m 0 min 0 min 2 W/m 6,3 km/h (2 Bft) 95,74 %
04.06.2016 21:50 19,4 C 18,3 C 16,7 C 93 % 2 lf 1013,5 hPa 0,0 l/m 0 min 0 min 0 W/m 6,3 km/h (2 Bft) 93,62 %
04.06.2016 21:52 19,3 C 18,3 C 17,2 C 93 % 2 lf 1013,5 hPa 0,0 l/m 0 min 0 min 0 W/m 6,3 km/h (2 Bft) 91,49 %
04.06.2016 21:54 19,3 C 18,3 C 17,2 C 93 % 2 lf 1013,5 hPa 0,0 l/m 0 min 0 min 0 W/m 4,2 km/h (1 Bft) 93,48 %
04.06.2016 21:56 19,3 C 18,3 C 17,2 C 93 % 2 lf 1013,5 hPa 0,0 l/m 0 min 0 min 0 W/m 4,2 km/h (1 Bft) 95,74 %
04.06.2016 21:58 19,3 C 18,3 C 16,7 C 93 % 2 lf 1013,5 hPa 0,0 l/m 0 min 0 min 0 W/m 6,3 km/h (2 Bft) 93,62 %
04.06.2016 22:00 19,3 C 18,3 C 16,7 C 93 % 2 lf 1013,6 hPa 0,0 l/m 0 min 0 min 0 W/m 6,3 km/h (2 Bft) 95,74 %
04.06.2016 22:02 19,2 C 18,3 C 16,7 C 93 % 2 lf 1013,4 hPa 0,0 l/m 0 min 0 min 0 W/m 4,2 km/h (1 Bft) 93,62 %
04.06.2016 22:04 19,2 C 18,3 C 16,7 C 93 % 2 lf 1013,5 hPa 0,0 l/m 0 min 0 min 0 W/m 4,2 km/h (1 Bft) 93,62 %
04.06.2016 22:06 19,2 C 18,3 C 16,7 C 94 % 2 lf 1013,5 hPa 0,0 l/m 0 min 0 min 0 W/m 4,2 km/h (1 Bft) 90,74 %
04.06.2016 22:08 19,2 C 18,3 C 16,7 C 94 % 2 lf 1013,5 hPa 0,0 l/m 0 min 0 min 0 W/m 8,4 km/h (2 Bft) 95,74 %
04.06.2016 22:10 19,2 C 18,3 C 16,7 C 94 % 2 lf 1013,5 hPa 0,0 l/m 0 min 0 min 0 W/m 8,4 km/h (2 Bft) 95,74 %
04.06.2016 22:12 19,2 C 18,3 C 16,7 C 94 % 1 lf 1013,5 hPa 0,0 l/m 0 min 0 min 0 W/m 10,5 km/h (2 Bft) 93,62 %
04.06.2016 22:14 19,2 C 18,3 C 17,2 C 94 % 1 lf 1013,5 hPa 0,0 l/m 0 min 0 min 0 W/m 8,4 km/h (2 Bft) 97,87 %
04.06.2016 22:16 19,2 C 18,3 C 17,2 C 94 % 1 lf 1013,5 hPa 0,0 l/m 0 min 0 min 0 W/m 6,3 km/h (2 Bft) 100,00 %
04.06.2016 22:18 19,1 C 18,3 C 16,7 C 94 % 1 lf 1013,6 hPa 0,0 l/m 0 min 0 min 0 W/m 8,4 km/h (2 Bft) 89,36 %
04.06.2016 22:20 19,1 C 18,3 C 17,2 C 94 % 1 lf 1013,5 hPa 0,0 l/m 0 min 0 min 0 W/m 6,3 km/h (2 Bft) 95,74 %
04.06.2016 22:22 19,1 C 18,3 C 16,7 C 94 % 1 lf 1013,5 hPa 0,0 l/m 0 min 0 min 0 W/m 6,3 km/h (2 Bft) 97,87 %
04.06.2016 22:24 19,1 C 18,3 C 16,7 C 94 % 1 lf 1013,6 hPa 0,0 l/m 0 min 0 min 0 W/m 8,4 km/h (2 Bft) 93,62 %
04.06.2016 22:26 19,0 C 18,3 C 16,7 C 95 % 1 lf 1013,6 hPa 0,0 l/m 0 min 0 min 0 W/m 6,3 km/h (2 Bft) 97,87 %
04.06.2016 22:28 19,0 C 18,3 C 16,7 C 95 % 1 lf 1013,6 hPa 0,0 l/m 0 min 0 min 0 W/m 6,3 km/h (2 Bft) 97,83 %
04.06.2016 22:30 19,0 C 18,3 C 16,7 C 95 % 1 lf 1013,6 hPa 0,0 l/m 0 min 0 min 0 W/m 6,3 km/h (2 Bft) 97,87 %
04.06.2016 22:32 18,9 C 17,8 C 16,7 C 95 % 1 lf 1013,7 hPa 0,0 l/m 0 min 0 min 0 W/m 4,2 km/h (1 Bft) 97,87 %
04.06.2016 22:34 18,9 C 17,8 C 16,7 C 95 % 2 lf 1013,7 hPa 0,0 l/m 0 min 0 min 0 W/m 4,2 km/h (1 Bft) 95,74 %
04.06.2016 22:36 18,9 C 17,8 C 16,7 C 95 % 2 lf 1013,6 hPa 0,0 l/m 0 min 0 min 0 W/m 6,3 km/h (2 Bft) 98,00 %
04.06.2016 22:38 18,9 C 17,8 C 16,7 C 95 % 2 lf 1013,6 hPa 0,0 l/m 0 min 0 min 0 W/m 6,3 km/h (2 Bft) 97,83 %
04.06.2016 22:40 18,9 C 17,8 C 16,7 C 95 % 2 lf 1013,7 hPa 0,0 l/m 0 min 0 min 0 W/m 4,2 km/h (1 Bft) 97,87 %
04.06.2016 22:42 18,8 C 17,8 C 16,7 C 95 % 2 lf 1013,6 hPa 0,0 l/m 0 min 0 min 0 W/m 10,5 km/h (2 Bft) 100,00 %
04.06.2016 22:44 18,8 C 17,8 C 16,7 C 95 % 2 lf 1013,7 hPa 0,0 l/m 0 min 0 min 0 W/m 8,4 km/h (2 Bft) 97,87 %
04.06.2016 22:46 18,8 C 17,8 C 16,7 C 95 % 3 lf 1013,6 hPa 0,0 l/m 0 min 0 min 0 W/m 6,3 km/h (2 Bft) 97,87 %
04.06.2016 22:48 18,8 C 17,8 C 16,1 C 95 % 3 lf 1013,7 hPa 0,0 l/m 0 min 0 min 0 W/m 6,3 km/h (2 Bft) 100,00 %
04.06.2016 22:50 18,7 C 17,8 C 16,1 C 95 % 3 lf 1013,6 hPa 0,0 l/m 0 min 0 min 0 W/m 6,3 km/h (2 Bft) 93,48 %
04.06.2016 22:52 18,7 C 17,8 C 16,1 C 95 % 3 lf 1013,7 hPa 0,0 l/m 0 min 0 min 0 W/m 4,2 km/h (1 Bft) 97,87 %
04.06.2016 22:54 18,7 C 17,8 C 16,1 C 95 % 3 lf 1013,7 hPa 0,0 l/m 0 min 0 min 0 W/m 6,3 km/h (2 Bft) 97,87 %
04.06.2016 22:56 18,7 C 17,8 C 16,1 C 95 % 3 lf 1013,7 hPa 0,0 l/m 0 min 0 min 0 W/m 6,3 km/h (2 Bft) 97,87 %
04.06.2016 22:58 18,6 C 17,8 C 16,1 C 95 % 3 lf 1013,8 hPa 0,0 l/m 0 min 0 min 0 W/m 6,3 km/h (2 Bft) 100,00 %
04.06.2016 23:00 18,6 C 17,8 C 16,1 C 95 % 3 lf 1013,7 hPa 0,0 l/m 0 min 0 min 0 W/m 6,3 km/h (2 Bft) 97,87 %
04.06.2016 23:02 18,6 C 17,8 C 16,1 C 95 % 4 lf 1013,8 hPa 0,0 l/m 0 min 0 min 0 W/m 8,4 km/h (2 Bft) 100,00 %
04.06.2016 23:04 18,6 C 17,8 C 16,1 C 95 % 4 lf 1013,8 hPa 0,0 l/m 0 min 0 min 0 W/m 6,3 km/h (2 Bft) 97,87 %
04.06.2016 23:06 18,6 C 17,8 C 16,1 C 95 % 4 lf 1013,8 hPa 0,0 l/m 0 min 0 min 0 W/m 6,3 km/h (2 Bft) 100,00 %
04.06.2016 23:08 18,5 C 17,8 C 16,1 C 95 % 4 lf 1013,8 hPa 0,0 l/m 0 min 0 min 0 W/m 8,4 km/h (2 Bft) 100,00 %
04.06.2016 23:10 18,5 C 17,8 C 16,1 C 95 % 4 lf 1013,8 hPa 0,0 l/m 0 min 0 min 0 W/m 6,3 km/h (2 Bft) 100,00 %
04.06.2016 23:12 18,4 C 17,2 C 16,1 C 95 % 4 lf 1013,7 hPa 0,0 l/m 0 min 0 min 0 W/m 8,4 km/h (2 Bft) 97,87 %
04.06.2016 23:14 18,4 C 17,8 C 16,1 C 95 % 4 lf 1013,7 hPa 0,0 l/m 0 min 0 min 0 W/m 10,5 km/h (2 Bft) 95,92 %
04.06.2016 23:16 18,4 C 17,2 C 16,1 C 95 % 4 lf 1013,7 hPa 0,0 l/m 0 min 0 min 0 W/m 10,5 km/h (2 Bft) 100,00 %
04.06.2016 23:18 18,4 C 17,2 C 16,1 C 95 % 4 lf 1013,7 hPa 0,0 l/m 0 min 0 min 0 W/m 6,3 km/h (2 Bft) 100,00 %
04.06.2016 23:20 18,3 C 17,2 C 16,1 C 95 % 4 lf 1013,8 hPa 0,0 l/m 0 min 0 min 0 W/m 6,3 km/h (2 Bft) 97,87 %
04.06.2016 23:22 18,3 C 17,2 C 16,1 C 96 % 5 lf 1013,8 hPa 0,0 l/m 0 min 0 min 0 W/m 6,3 km/h (2 Bft) 97,87 %
04.06.2016 23:24 18,3 C 17,2 C 16,1 C 95 % 5 lf 1013,9 hPa 0,0 l/m 0 min 0 min 0 W/m 4,2 km/h (1 Bft) 100,00 %
04.06.2016 23:26 18,2 C 17,2 C 15,6 C 95 % 6 lf 1013,9 hPa 0,0 l/m 0 min 0 min 0 W/m 4,2 km/h (1 Bft) 97,83 %
04.06.2016 23:28 18,2 C 17,2 C 15,6 C 95 % 7 lf 1013,9 hPa 0,0 l/m 0 min 0 min 0 W/m 4,2 km/h (1 Bft) 100,00 %
04.06.2016 23:30 18,2 C 17,2 C 15,6 C 95 % 8 lf 1013,9 hPa 0,0 l/m 0 min 0 min 0 W/m 6,3 km/h (2 Bft) 97,87 %
04.06.2016 23:32 18,2 C 17,2 C 15,6 C 95 % 8 lf 1014,0 hPa 0,0 l/m 0 min 0 min 0 W/m 8,4 km/h (2 Bft) 95,74 %
04.06.2016 23:34 18,1 C 17,2 C 15,6 C 96 % 9 lf 1014,0 hPa 0,0 l/m 0 min 0 min 0 W/m 8,4 km/h (2 Bft) 97,87 %
04.06.2016 23:36 18,1 C 17,2 C 16,1 C 96 % 10 lf 1014,1 hPa 0,0 l/m 0 min 0 min 0 W/m 8,4 km/h (2 Bft) 93,62 %
04.06.2016 23:38 18,1 C 17,2 C 16,1 C 96 % 10 lf 1014,1 hPa 0,0 l/m 0 min 0 min 0 W/m 10,5 km/h (2 Bft) 97,83 %
04.06.2016 23:40 18,0 C 17,2 C 16,1 C 96 % 11 lf 1014,1 hPa 0,0 l/m 0 min 0 min 0 W/m 8,4 km/h (2 Bft) 96,23 %
04.06.2016 23:42 18,0 C 17,2 C 16,1 C 96 % 11 lf 1014,2 hPa 0,0 l/m 0 min 0 min 0 W/m 8,4 km/h (2 Bft) 93,62 %
04.06.2016 23:44 17,9 C 17,2 C 16,1 C 96 % 11 lf 1014,2 hPa 0,0 l/m 0 min 0 min 0 W/m 10,5 km/h (2 Bft) 95,74 %
04.06.2016 23:46 17,9 C 17,2 C 15,6 C 96 % 12 lf 1014,2 hPa 0,0 l/m 0 min 0 min 0 W/m 6,3 km/h (2 Bft) 95,74 %
04.06.2016 23:48 17,9 C 17,2 C 15,6 C 96 % 12 lf 1014,2 hPa 0,0 l/m 0 min 0 min 0 W/m 6,3 km/h (2 Bft) 97,83 %
04.06.2016 23:50 17,9 C 17,2 C 15,6 C 96 % 12 lf 1014,2 hPa 0,0 l/m 0 min 0 min 0 W/m 4,2 km/h (1 Bft) 97,87 %
04.06.2016 23:52 17,9 C 16,7 C 15,6 C 96 % 12 lf 1014,2 hPa 0,0 l/m 0 min 0 min 0 W/m 4,2 km/h (1 Bft) 95,74 %
04.06.2016 23:54 17,8 C 16,7 C 15,6 C 96 % 12 lf 1014,3 hPa 0,0 l/m 0 min 0 min 0 W/m 2,1 km/h (1 Bft) 95,74 %
04.06.2016 23:56 17,8 C 16,7 C 15,6 C 96 % 13 lf 1014,3 hPa 0,0 l/m 0 min 0 min 0 W/m 4,2 km/h (1 Bft) 93,62 %
04.06.2016 23:58 17,8 C 16,7 C 15,6 C 96 % 13 lf 1014,3 hPa 0,0 l/m 0 min 0 min 0 W/m 4,2 km/h (1 Bft) 90,24 %
_ Min-Zeit 03:44 01:32 01:56 14:12 00:00 15:18 - - - - 00:18 03:12
Minimum _ 15,2 C 14,4 C 13,3 C 76 % 0 lf 1011,0 hPa - - - - 0,0 km/h (0 Bft) 86,96 %
_ Max-Zeit 14:00 13:56 12:32 10:36 00:34 23:54 00:38 09:56 00:00 13:54 15:16 00:46
Maximum _ 24,6 C 34,4 C 29,4 C 100 % 15 lf 1014,3 hPa 3,2 l/m 2 min 2 min 1060 W/m 35,6 km/h
W-SW (5 Bft)
100,00 %
Durchschnitt _ 18,6 C 19,7 C 18,3 C 93 % 6 lf 1012,2 hPa #14,0 l/m #3:24 h #48 min. 223 W/m 9,6 km/h (2 Bft) 96,20 %
© 2016 W. Hausmann